Time,TemperatureF,DewpointF,PressureIn,WindDirection,WindDirectionDegrees,WindSpeedMPH,WindSpeedGustMPH,Humidity,HourlyPrecipIn,Conditions,Clouds,dailyrainin,SoftwareType,DateUTC
2013-02-21 00:00:00,21.0,15.2,29.90,West,268,0.0,4.0,78,0.00,,,0.00,Wunderground v.1.15,2013-02-21 05:00:00,
2013-02-21 00:06:00,21.0,15.5,29.90,SSW,212,5.0,7.0,79,0.00,,,0.00,Wunderground v.1.15,2013-02-21 05:06:00,
2013-02-21 00:08:00,21.0,15.2,29.90,West,281,5.0,5.0,78,0.00,,,0.00,Wunderground v.1.15,2013-02-21 05:08:00,
2013-02-21 00:10:00,21.0,15.2,29.90,NNW,333,3.0,5.0,78,0.00,,,0.00,Wunderground v.1.15,2013-02-21 05:10:00,
2013-02-21 00:12:00,21.1,15.3,29.90,ESE,111,3.0,5.0,78,0.00,,,0.00,Wunderground v.1.15,2013-02-21 05:12:00,
2013-02-21 00:15:00,21.1,15.3,29.90,WNW,296,4.0,5.0,78,0.00,,,0.00,Wunderground v.1.15,2013-02-21 05:15:00,
2013-02-21 00:16:00,21.1,15.3,29.90,West,270,6.0,6.0,78,0.00,,,0.00,Wunderground v.1.15,2013-02-21 05:16:00,
2013-02-21 00:18:00,21.1,15.3,29.90,West,276,10.0,10.0,78,0.00,,,0.00,Wunderground v.1.15,2013-02-21 05:18:00,
2013-02-21 00:21:00,21.1,15.0,29.90,NNW,331,6.0,10.0,77,0.00,,,0.00,Wunderground v.1.15,2013-02-21 05:21:00,
2013-02-21 00:22:00,21.1,15.0,29.90,West,261,7.0,10.0,77,0.00,,,0.00,Wunderground v.1.15,2013-02-21 05:22:00,
2013-02-21 00:27:00,21.0,14.6,29.90,West,277,8.0,8.0,76,0.00,,,0.00,Wunderground v.1.15,2013-02-21 05:27:00,
2013-02-21 00:29:00,21.0,14.6,29.90,WNW,284,7.0,8.0,76,0.00,,,0.00,Wunderground v.1.15,2013-02-21 05:29:00,
2013-02-21 00:30:00,21.0,14.6,29.90,WNW,284,4.0,8.0,76,0.00,,,0.00,Wunderground v.1.15,2013-02-21 05:30:00,
2013-02-21 00:32:00,21.0,14.9,29.90,WSW,250,3.0,8.0,77,0.00,,,0.00,Wunderground v.1.15,2013-02-21 05:32:00,
2013-02-21 00:34:00,21.0,14.9,29.90,SW,226,5.0,8.0,77,0.00,,,0.00,Wunderground v.1.15,2013-02-21 05:34:00,
2013-02-21 00:37:00,20.9,14.8,29.90,West,279,1.0,8.0,77,0.00,,,0.00,Wunderground v.1.15,2013-02-21 05:37:00,
2013-02-21 00:39:00,20.9,14.5,29.90,NW,313,4.0,7.0,76,0.00,,,0.00,Wunderground v.1.15,2013-02-21 05:39:00,
2013-02-21 00:40:00,20.9,14.8,29.90,West,276,8.0,8.0,77,0.00,,,0.00,Wunderground v.1.15,2013-02-21 05:40:00,
2013-02-21 00:42:00,20.9,14.5,29.90,WNW,284,5.0,8.0,76,0.00,,,0.00,Wunderground v.1.15,2013-02-21 05:42:00,
2013-02-21 00:44:00,20.8,14.4,29.90,WNW,286,6.0,8.0,76,0.00,,,0.00,Wunderground v.1.15,2013-02-21 05:44:00,
2013-02-21 00:45:00,20.8,14.4,29.90,West,279,5.0,8.0,76,0.00,,,0.00,Wunderground v.1.15,2013-02-21 05:45:00,
2013-02-21 00:48:00,20.8,14.4,29.90,West,270,8.0,8.0,76,0.00,,,0.00,Wunderground v.1.15,2013-02-21 05:48:00,
2013-02-21 00:49:00,20.8,14.4,29.90,NW,324,1.0,8.0,76,0.00,,,0.00,Wunderground v.1.15,2013-02-21 05:49:00,
2013-02-21 00:53:00,20.7,14.6,29.90,SW,234,5.0,8.0,77,0.00,,,0.00,Wunderground v.1.15,2013-02-21 05:53:00,
2013-02-21 00:56:00,20.7,14.6,29.90,SW,221,2.0,8.0,77,0.00,,,0.00,Wunderground v.1.15,2013-02-21 05:56:00,
2013-02-21 00:58:00,20.7,14.6,29.90,WNW,288,2.0,4.0,77,0.00,,,0.00,Wunderground v.1.15,2013-02-21 05:58:00,
2013-02-21 01:01:00,20.7,14.6,29.90,WNW,284,8.0,8.0,77,0.00,,,0.00,Wunderground v.1.15,2013-02-21 06:01:00,
2013-02-21 01:03:00,20.6,14.5,29.90,West,273,5.0,8.0,77,0.00,,,0.00,Wunderground v.1.15,2013-02-21 06:03:00,
2013-02-21 01:08:00,20.6,14.2,29.90,WNW,292,4.0,6.0,76,0.00,,,0.00,Wunderground v.1.15,2013-02-21 06:08:00,
2013-02-21 01:09:00,20.6,14.2,29.90,WSW,239,6.0,6.0,76,0.00,,,0.00,Wunderground v.1.15,2013-02-21 06:09:00,
2013-02-21 01:11:00,20.5,14.1,29.91,West,272,7.0,7.0,76,0.00,,,0.00,Wunderground v.1.15,2013-02-21 06:11:00,
2013-02-21 01:16:00,20.5,14.1,29.90,West,270,7.0,9.0,76,0.00,,,0.00,Wunderground v.1.15,2013-02-21 06:16:00,
2013-02-21 01:19:00,20.4,14.0,29.90,West,263,2.0,5.0,76,0.00,,,0.00,Wunderground v.1.15,2013-02-21 06:19:00,
2013-02-21 01:20:00,20.4,14.0,29.90,North,350,5.0,5.0,76,0.00,,,0.00,Wunderground v.1.15,2013-02-21 06:20:00,
2013-02-21 01:25:00,20.4,14.0,29.90,SW,223,2.0,7.0,76,0.00,,,0.00,Wunderground v.1.15,2013-02-21 06:25:00,
2013-02-21 01:26:00,20.4,14.3,29.90,West,277,3.0,7.0,77,0.00,,,0.00,Wunderground v.1.15,2013-02-21 06:26:00,
2013-02-21 01:28:00,20.4,14.3,29.91,West,275,4.0,4.0,77,0.00,,,0.00,Wunderground v.1.15,2013-02-21 06:28:00,
2013-02-21 01:29:00,20.3,14.2,29.90,WNW,302,9.0,9.0,77,0.00,,,0.00,Wunderground v.1.15,2013-02-21 06:29:00,
2013-02-21 01:33:00,20.3,14.2,29.90,NW,309,5.0,9.0,77,0.00,,,0.00,Wunderground v.1.15,2013-02-21 06:33:00,
2013-02-21 01:34:00,20.2,13.8,29.90,NW,316,4.0,9.0,76,0.00,,,0.00,Wunderground v.1.15,2013-02-21 06:34:00,
2013-02-21 01:35:00,20.2,13.8,29.90,SSW,192,5.0,9.0,76,0.00,,,0.00,Wunderground v.1.15,2013-02-21 06:35:00,
2013-02-21 01:40:00,20.2,14.1,29.90,North,5,5.0,12.0,77,0.00,,,0.00,Wunderground v.1.15,2013-02-21 06:40:00,
2013-02-21 01:41:00,20.2,13.8,29.90,West,281,7.0,12.0,76,0.00,,,0.00,Wunderground v.1.15,2013-02-21 06:41:00,
2013-02-21 01:42:00,20.1,13.7,29.90,WNW,292,2.0,12.0,76,0.00,,,0.00,Wunderground v.1.15,2013-02-21 06:42:00,
2013-02-21 01:48:00,20.1,14.0,29.90,NW,325,5.0,5.0,77,0.00,,,0.00,Wunderground v.1.15,2013-02-21 06:48:00,
2013-02-21 01:49:00,20.0,13.9,29.90,West,280,4.0,5.0,77,0.00,,,0.00,Wunderground v.1.15,2013-02-21 06:49:00,
2013-02-21 01:54:00,20.0,13.9,29.90,WSW,243,3.0,9.0,77,0.00,,,0.00,Wunderground v.1.15,2013-02-21 06:54:00,
2013-02-21 01:56:00,20.0,13.9,29.90,West,269,2.0,9.0,77,0.00,,,0.00,Wunderground v.1.15,2013-02-21 06:56:00,
2013-02-21 02:00:00,20.0,13.6,29.90,West,265,1.0,7.0,76,0.00,,,0.00,Wunderground v.1.15,2013-02-21 07:00:00,
2013-02-21 02:01:00,20.0,13.6,29.90,WNW,292,2.0,7.0,76,0.00,,,0.00,Wunderground v.1.15,2013-02-21 07:01:00,
2013-02-21 02:02:00,20.0,13.9,29.90,North,355,3.0,7.0,77,0.00,,,0.00,Wunderground v.1.15,2013-02-21 07:02:00,
2013-02-21 02:06:00,20.0,13.6,29.90,SW,229,5.0,12.0,76,0.00,,,0.00,Wunderground v.1.15,2013-02-21 07:06:00,
2013-02-21 02:07:00,19.9,13.6,29.90,West,281,3.0,12.0,76,0.00,,,0.00,Wunderground v.1.15,2013-02-21 07:07:00,
2013-02-21 02:11:00,19.9,13.6,29.89,WNW,282,4.0,5.0,76,0.00,,,0.00,Wunderground v.1.15,2013-02-21 07:11:00,
2013-02-21 02:12:00,19.9,13.6,29.89,West,262,2.0,5.0,76,0.00,,,0.00,Wunderground v.1.15,2013-02-21 07:12:00,
2013-02-21 02:13:00,19.9,13.6,29.90,West,269,4.0,5.0,76,0.00,,,0.00,Wunderground v.1.15,2013-02-21 07:13:00,
2013-02-21 02:17:00,19.9,13.9,29.89,WSW,257,2.0,4.0,77,0.00,,,0.00,Wunderground v.1.15,2013-02-21 07:17:00,
2013-02-21 02:18:00,19.9,13.9,29.89,West,281,4.0,4.0,77,0.00,,,0.00,Wunderground v.1.15,2013-02-21 07:18:00,
2013-02-21 02:23:00,19.8,13.8,29.89,WSW,258,6.0,8.0,77,0.00,,,0.00,Wunderground v.1.15,2013-02-21 07:23:00,
2013-02-21 02:24:00,19.8,13.8,29.89,West,269,2.0,8.0,77,0.00,,,0.00,Wunderground v.1.15,2013-02-21 07:24:00,
2013-02-21 02:26:00,19.8,13.8,29.89,South,178,4.0,8.0,77,0.00,,,0.00,Wunderground v.1.15,2013-02-21 07:26:00,
2013-02-21 02:28:00,19.8,13.8,29.89,West,268,7.0,7.0,77,0.00,,,0.00,Wunderground v.1.15,2013-02-21 07:28:00,
2013-02-21 02:29:00,19.8,13.8,29.89,WNW,294,8.0,8.0,77,0.00,,,0.00,Wunderground v.1.15,2013-02-21 07:29:00,
2013-02-21 02:33:00,19.7,14.0,29.89,WNW,297,1.0,8.0,78,0.00,,,0.00,Wunderground v.1.15,2013-02-21 07:33:00,
2013-02-21 02:34:00,19.7,14.0,29.89,WNW,284,4.0,8.0,78,0.00,,,0.00,Wunderground v.1.15,2013-02-21 07:34:00,
2013-02-21 02:35:00,19.7,14.0,29.89,West,278,7.0,8.0,78,0.00,,,0.00,Wunderground v.1.15,2013-02-21 07:35:00,
2013-02-21 02:36:00,19.6,13.9,29.89,SW,236,4.0,8.0,78,0.00,,,0.00,Wunderground v.1.15,2013-02-21 07:36:00,
2013-02-21 02:38:00,19.6,13.9,29.89,WNW,297,2.0,4.0,78,0.00,,,0.00,Wunderground v.1.15,2013-02-21 07:38:00,
2013-02-21 02:39:00,19.5,13.8,29.90,NW,325,4.0,4.0,78,0.00,,,0.00,Wunderground v.1.15,2013-02-21 07:39:00,
2013-02-21 02:41:00,19.5,14.0,29.90,WNW,302,9.0,14.0,79,0.00,,,0.00,Wunderground v.1.15,2013-02-21 07:41:00,
2013-02-21 02:43:00,19.4,13.9,29.90,WNW,286,7.0,14.0,79,0.00,,,0.00,Wunderground v.1.15,2013-02-21 07:43:00,
2013-02-21 02:45:00,19.3,13.9,29.89,WSW,245,1.0,14.0,79,0.00,,,0.00,Wunderground v.1.15,2013-02-21 07:45:00,
2013-02-21 02:46:00,19.3,13.9,29.89,West,266,4.0,14.0,79,0.00,,,0.00,Wunderground v.1.15,2013-02-21 07:46:00,
2013-02-21 02:48:00,19.3,14.1,29.89,West,281,12.0,12.0,80,0.00,,,0.00,Wunderground v.1.15,2013-02-21 07:48:00,
2013-02-21 02:49:00,19.3,14.1,29.89,WSW,252,6.0,12.0,80,0.00,,,0.00,Wunderground v.1.15,2013-02-21 07:49:00,
2013-02-21 02:51:00,19.2,14.0,29.89,NW,315,5.0,12.0,80,0.00,,,0.00,Wunderground v.1.15,2013-02-21 07:51:00,
2013-02-21 02:52:00,19.2,14.0,29.89,South,190,3.0,12.0,80,0.00,,,0.00,Wunderground v.1.15,2013-02-21 07:52:00,
2013-02-21 02:54:00,19.2,14.0,29.89,SW,234,5.0,12.0,80,0.00,,,0.00,Wunderground v.1.15,2013-02-21 07:54:00,
2013-02-21 02:57:00,19.1,14.2,29.89,WNW,290,4.0,4.0,81,0.00,,,0.00,Wunderground v.1.15,2013-02-21 07:57:00,
2013-02-21 02:59:00,19.1,14.2,29.89,West,275,7.0,7.0,81,0.00,,,0.00,Wunderground v.1.15,2013-02-21 07:59:00,
2013-02-21 03:00:00,19.1,14.2,29.89,ENE,59,1.0,7.0,81,0.00,,,0.00,Wunderground v.1.15,2013-02-21 08:00:00,
2013-02-21 03:03:00,19.0,14.1,29.88,WSW,246,1.0,7.0,81,0.00,,,0.00,Wunderground v.1.15,2013-02-21 08:03:00,
2013-02-21 03:05:00,19.1,14.2,29.89,WNW,293,6.0,7.0,81,0.00,,,0.00,Wunderground v.1.15,2013-02-21 08:05:00,
2013-02-21 03:06:00,19.0,14.1,29.88,West,277,7.0,7.0,81,0.00,,,0.00,Wunderground v.1.15,2013-02-21 08:06:00,
2013-02-21 03:09:00,19.0,14.4,29.88,West,262,1.0,7.0,82,0.00,,,0.00,Wunderground v.1.15,2013-02-21 08:09:00,
2013-02-21 03:10:00,19.0,14.4,29.88,West,280,3.0,7.0,82,0.00,,,0.00,Wunderground v.1.15,2013-02-21 08:10:00,
2013-02-21 03:12:00,18.9,14.3,29.88,West,273,8.0,8.0,82,0.00,,,0.00,Wunderground v.1.15,2013-02-21 08:12:00,
2013-02-21 03:16:00,18.9,14.6,29.88,West,273,6.0,8.0,83,0.00,,,0.00,Wunderground v.1.15,2013-02-21 08:16:00,
2013-02-21 03:17:00,18.8,14.5,29.88,WNW,292,3.0,8.0,83,0.00,,,0.00,Wunderground v.1.15,2013-02-21 08:17:00,
2013-02-21 03:21:00,18.8,14.5,29.88,WNW,284,5.0,10.0,83,0.00,,,0.00,Wunderground v.1.15,2013-02-21 08:21:00,
2013-02-21 03:23:00,18.7,14.4,29.88,West,279,1.0,10.0,83,0.00,,,0.00,Wunderground v.1.15,2013-02-21 08:23:00,
2013-02-21 03:25:00,18.7,14.4,29.88,NW,323,5.0,10.0,83,0.00,,,0.00,Wunderground v.1.15,2013-02-21 08:25:00,
2013-02-21 03:27:00,18.6,14.6,29.87,WNW,283,5.0,5.0,84,0.00,,,0.00,Wunderground v.1.15,2013-02-21 08:27:00,
2013-02-21 03:28:00,18.6,14.6,29.87,West,266,4.0,6.0,84,0.00,,,0.00,Wunderground v.1.15,2013-02-21 08:28:00,
2013-02-21 03:30:00,18.6,14.6,29.87,NW,318,4.0,7.0,84,0.00,,,0.00,Wunderground v.1.15,2013-02-21 08:30:00,
2013-02-21 03:33:00,18.6,14.6,29.87,WSW,253,2.0,7.0,84,0.00,,,0.00,Wunderground v.1.15,2013-02-21 08:33:00,
2013-02-21 03:35:00,18.6,14.6,29.88,West,260,4.0,7.0,84,0.00,,,0.00,Wunderground v.1.15,2013-02-21 08:35:00,
2013-02-21 03:38:00,18.5,14.5,29.87,WNW,298,1.0,8.0,84,0.00,,,0.00,Wunderground v.1.15,2013-02-21 08:38:00,
2013-02-21 03:39:00,18.5,14.5,29.87,WNW,298,2.0,8.0,84,0.00,,,0.00,Wunderground v.1.15,2013-02-21 08:39:00,
2013-02-21 03:40:00,18.5,14.5,29.87,West,281,4.0,8.0,84,0.00,,,0.00,Wunderground v.1.15,2013-02-21 08:40:00,
2013-02-21 03:41:00,18.5,14.5,29.87,WNW,302,4.0,8.0,84,0.00,,,0.00,Wunderground v.1.15,2013-02-21 08:41:00,
2013-02-21 03:44:00,18.5,14.5,29.87,WSW,244,3.0,9.0,84,0.00,,,0.00,Wunderground v.1.15,2013-02-21 08:44:00,
2013-02-21 03:45:00,18.5,14.7,29.87,West,268,3.0,9.0,85,0.00,,,0.00,Wunderground v.1.15,2013-02-21 08:45:00,
2013-02-21 03:46:00,18.4,14.6,29.88,West,279,10.0,10.0,85,0.00,,,0.00,Wunderground v.1.15,2013-02-21 08:46:00,
2013-02-21 03:48:00,18.4,14.6,29.87,WSW,258,10.0,10.0,85,0.00,,,0.00,Wunderground v.1.15,2013-02-21 08:48:00,
2013-02-21 03:51:00,18.4,14.6,29.88,West,266,5.0,10.0,85,0.00,,,0.00,Wunderground v.1.15,2013-02-21 08:51:00,
2013-02-21 03:52:00,18.4,14.6,29.88,West,279,6.0,10.0,85,0.00,,,0.00,Wunderground v.1.15,2013-02-21 08:52:00,
2013-02-21 03:54:00,18.4,14.6,29.88,WNW,283,4.0,10.0,85,0.00,,,0.00,Wunderground v.1.15,2013-02-21 08:54:00,
2013-02-21 03:56:00,18.4,14.6,29.87,WNW,288,3.0,10.0,85,0.00,,,0.00,Wunderground v.1.15,2013-02-21 08:56:00,
2013-02-21 03:57:00,18.4,14.6,29.88,WNW,301,7.0,10.0,85,0.00,,,0.00,Wunderground v.1.15,2013-02-21 08:57:00,
2013-02-21 03:59:00,18.3,14.5,29.88,WNW,285,3.0,9.0,85,0.00,,,0.00,Wunderground v.1.15,2013-02-21 08:59:00,
2013-02-21 04:01:00,18.3,14.5,29.88,NW,321,5.0,9.0,85,0.00,,,0.00,Wunderground v.1.15,2013-02-21 09:01:00,
2013-02-21 04:02:00,18.3,14.5,29.88,West,276,6.0,9.0,85,0.00,,,0.00,Wunderground v.1.15,2013-02-21 09:02:00,
2013-02-21 04:04:00,18.3,14.8,29.88,West,278,4.0,11.0,86,0.00,,,0.00,Wunderground v.1.15,2013-02-21 09:04:00,
2013-02-21 04:06:00,18.3,14.8,29.88,West,278,5.0,11.0,86,0.00,,,0.00,Wunderground v.1.15,2013-02-21 09:06:00,
2013-02-21 04:08:00,18.2,14.7,29.88,West,269,5.0,5.0,86,0.00,,,0.00,Wunderground v.1.15,2013-02-21 09:08:00,
2013-02-21 04:10:00,18.2,14.7,29.88,West,260,3.0,9.0,86,0.00,,,0.00,Wunderground v.1.15,2013-02-21 09:10:00,
2013-02-21 04:12:00,18.2,14.7,29.87,West,276,5.0,11.0,86,0.00,,,0.00,Wunderground v.1.15,2013-02-21 09:12:00,
2013-02-21 04:13:00,18.2,14.7,29.88,NW,304,8.0,11.0,86,0.00,,,0.00,Wunderground v.1.15,2013-02-21 09:13:00,
2013-02-21 04:14:00,18.2,14.7,29.88,WNW,292,4.0,11.0,86,0.00,,,0.00,Wunderground v.1.15,2013-02-21 09:14:00,
2013-02-21 04:15:00,18.2,14.7,29.88,WNW,292,6.0,11.0,86,0.00,,,0.00,Wunderground v.1.15,2013-02-21 09:15:00,
2013-02-21 04:19:00,18.2,14.7,29.88,West,262,3.0,8.0,86,0.00,,,0.00,Wunderground v.1.15,2013-02-21 09:19:00,
2013-02-21 04:21:00,18.2,14.7,29.88,NW,315,5.0,8.0,86,0.00,,,0.00,Wunderground v.1.15,2013-02-21 09:21:00,
2013-02-21 04:24:00,18.1,14.6,29.88,West,268,5.0,8.0,86,0.00,,,0.00,Wunderground v.1.15,2013-02-21 09:24:00,
2013-02-21 04:26:00,18.2,14.7,29.88,WNW,290,8.0,8.0,86,0.00,,,0.00,Wunderground v.1.15,2013-02-21 09:26:00,
2013-02-21 04:28:00,18.1,14.9,29.88,WNW,300,4.0,5.0,87,0.00,,,0.00,Wunderground v.1.15,2013-02-21 09:28:00,
2013-02-21 04:29:00,18.1,14.9,29.88,West,276,4.0,5.0,87,0.00,,,0.00,Wunderground v.1.15,2013-02-21 09:29:00,
2013-02-21 04:32:00,18.0,14.8,29.88,West,275,4.0,9.0,87,0.00,,,0.00,Wunderground v.1.15,2013-02-21 09:32:00,
2013-02-21 04:34:00,18.0,14.8,29.88,West,259,7.0,9.0,87,0.00,,,0.00,Wunderground v.1.15,2013-02-21 09:34:00,
2013-02-21 04:35:00,18.0,14.8,29.88,WNW,296,4.0,9.0,87,0.00,,,0.00,Wunderground v.1.15,2013-02-21 09:35:00,
2013-02-21 04:36:00,18.0,14.8,29.88,ENE,73,3.0,9.0,87,0.00,,,0.00,Wunderground v.1.15,2013-02-21 09:36:00,
2013-02-21 04:40:00,17.9,14.9,29.88,WNW,300,6.0,6.0,88,0.00,,,0.00,Wunderground v.1.15,2013-02-21 09:40:00,
2013-02-21 04:41:00,17.9,14.9,29.88,WNW,300,1.0,6.0,88,0.00,,,0.00,Wunderground v.1.15,2013-02-21 09:41:00,
2013-02-21 04:42:00,17.9,14.9,29.88,West,281,2.0,6.0,88,0.00,,,0.00,Wunderground v.1.15,2013-02-21 09:42:00,
2013-02-21 04:43:00,17.9,14.9,29.88,WNW,302,2.0,6.0,88,0.00,,,0.00,Wunderground v.1.15,2013-02-21 09:43:00,
2013-02-21 04:46:00,17.8,14.8,29.88,West,279,6.0,6.0,88,0.00,,,0.00,Wunderground v.1.15,2013-02-21 09:46:00,
2013-02-21 04:47:00,17.8,14.8,29.88,NW,304,1.0,6.0,88,0.00,,,0.00,Wunderground v.1.15,2013-02-21 09:47:00,
2013-02-21 04:48:00,17.7,14.8,29.88,WNW,289,6.0,8.0,88,0.00,,,0.00,Wunderground v.1.15,2013-02-21 09:48:00,
2013-02-21 04:49:00,17.7,14.8,29.88,WNW,301,6.0,8.0,88,0.00,,,0.00,Wunderground v.1.15,2013-02-21 09:49:00,
2013-02-21 04:51:00,17.7,14.8,29.88,WNW,287,4.0,8.0,88,0.00,,,0.00,Wunderground v.1.15,2013-02-21 09:51:00,
2013-02-21 04:52:00,17.6,14.7,29.89,WNW,285,4.0,8.0,88,0.00,,,0.00,Wunderground v.1.15,2013-02-21 09:52:00,
2013-02-21 04:54:00,17.6,14.7,29.89,WSW,256,4.0,8.0,88,0.00,,,0.00,Wunderground v.1.15,2013-02-21 09:54:00,
2013-02-21 04:58:00,17.5,14.6,29.89,WNW,300,3.0,3.0,88,0.00,,,0.00,Wunderground v.1.15,2013-02-21 09:58:00,
2013-02-21 05:00:00,17.5,14.3,29.89,WSW,253,1.0,5.0,87,0.00,,,0.00,Wunderground v.1.15,2013-02-21 10:00:00,
2013-02-21 05:02:00,17.5,14.3,29.89,West,267,5.0,5.0,87,0.00,,,0.00,Wunderground v.1.15,2013-02-21 10:02:00,
2013-02-21 05:03:00,17.5,14.0,29.89,WNW,287,4.0,5.0,86,0.00,,,0.00,Wunderground v.1.15,2013-02-21 10:03:00,
2013-02-21 05:05:00,17.5,14.0,29.89,West,281,5.0,5.0,86,0.00,,,0.00,Wunderground v.1.15,2013-02-21 10:05:00,
2013-02-21 05:06:00,17.5,14.0,29.89,West,277,3.0,5.0,86,0.00,,,0.00,Wunderground v.1.15,2013-02-21 10:06:00,
2013-02-21 05:08:00,17.4,13.9,29.88,West,269,4.0,10.0,86,0.00,,,0.00,Wunderground v.1.15,2013-02-21 10:08:00,
2013-02-21 05:11:00,17.4,13.7,29.88,WNW,283,7.0,10.0,85,0.00,,,0.00,Wunderground v.1.15,2013-02-21 10:11:00,
2013-02-21 05:12:00,17.4,13.7,29.88,West,263,6.0,10.0,85,0.00,,,0.00,Wunderground v.1.15,2013-02-21 10:12:00,
2013-02-21 05:14:00,17.3,13.6,29.88,WSW,254,6.0,10.0,85,0.00,,,0.00,Wunderground v.1.15,2013-02-21 10:14:00,
2013-02-21 05:17:00,17.3,13.3,29.89,West,278,1.0,10.0,84,0.00,,,0.00,Wunderground v.1.15,2013-02-21 10:17:00,
2013-02-21 05:18:00,17.3,13.3,29.89,WNW,288,5.0,5.0,84,0.00,,,0.00,Wunderground v.1.15,2013-02-21 10:18:00,
2013-02-21 05:19:00,17.3,13.3,29.89,NW,308,0.0,5.0,84,0.00,,,0.00,Wunderground v.1.15,2013-02-21 10:19:00,
2013-02-21 05:22:00,17.3,13.6,29.89,WNW,284,3.0,8.0,85,0.00,,,0.00,Wunderground v.1.15,2013-02-21 10:22:00,
2013-02-21 05:24:00,17.3,13.6,29.90,WSW,255,3.0,8.0,85,0.00,,,0.00,Wunderground v.1.15,2013-02-21 10:24:00,
2013-02-21 05:25:00,17.4,13.7,29.89,NW,311,7.0,8.0,85,0.00,,,0.00,Wunderground v.1.15,2013-02-21 10:25:00,
2013-02-21 05:29:00,17.3,13.3,29.90,WNW,287,4.0,7.0,84,0.00,,,0.00,Wunderground v.1.15,2013-02-21 10:29:00,
2013-02-21 05:30:00,17.3,13.3,29.90,West,261,5.0,7.0,84,0.00,,,0.00,Wunderground v.1.15,2013-02-21 10:30:00,
2013-02-21 05:31:00,17.4,13.1,29.90,NW,304,3.0,7.0,83,0.00,,,0.00,Wunderground v.1.15,2013-02-21 10:31:00,
2013-02-21 05:34:00,17.4,13.1,29.91,SSW,197,3.0,10.0,83,0.00,,,0.00,Wunderground v.1.15,2013-02-21 10:34:00,
2013-02-21 05:35:00,17.4,13.1,29.91,WNW,292,3.0,10.0,83,0.00,,,0.00,Wunderground v.1.15,2013-02-21 10:35:00,
2013-02-21 05:37:00,17.4,13.1,29.91,West,269,8.0,10.0,83,0.00,,,0.00,Wunderground v.1.15,2013-02-21 10:37:00,
2013-02-21 05:40:00,17.4,12.8,29.91,West,277,1.0,6.0,82,0.00,,,0.00,Wunderground v.1.15,2013-02-21 10:40:00,
2013-02-21 05:41:00,17.4,12.8,29.91,WNW,284,6.0,6.0,82,0.00,,,0.00,Wunderground v.1.15,2013-02-21 10:41:00,
2013-02-21 05:43:00,17.4,12.8,29.91,West,261,3.0,6.0,82,0.00,,,0.00,Wunderground v.1.15,2013-02-21 10:43:00,
2013-02-21 05:46:00,17.4,12.8,29.91,NW,309,4.0,8.0,82,0.00,,,0.00,Wunderground v.1.15,2013-02-21 10:46:00,
2013-02-21 05:47:00,17.4,12.8,29.91,West,270,3.0,8.0,82,0.00,,,0.00,Wunderground v.1.15,2013-02-21 10:47:00,
2013-02-21 05:48:00,17.4,12.8,29.91,NW,308,5.0,5.0,82,0.00,,,0.00,Wunderground v.1.15,2013-02-21 10:48:00,
2013-02-21 05:52:00,17.4,12.6,29.91,West,273,7.0,9.0,81,0.00,,,0.00,Wunderground v.1.15,2013-02-21 10:52:00,
2013-02-21 05:53:00,17.4,12.6,29.91,WNW,288,3.0,9.0,81,0.00,,,0.00,Wunderground v.1.15,2013-02-21 10:53:00,
2013-02-21 05:58:00,17.3,12.5,29.91,West,267,10.0,10.0,81,0.00,,,0.00,Wunderground v.1.15,2013-02-21 10:58:00,
2013-02-21 05:59:00,17.3,12.5,29.91,WNW,294,5.0,10.0,81,0.00,,,0.00,Wunderground v.1.15,2013-02-21 10:59:00,
2013-02-21 06:00:00,17.3,12.5,29.91,WNW,302,5.0,10.0,81,0.00,,,0.00,Wunderground v.1.15,2013-02-21 11:00:00,
2013-02-21 06:04:00,17.3,12.2,29.91,WNW,284,6.0,12.0,80,0.00,,,0.00,Wunderground v.1.15,2013-02-21 11:04:00,
2013-02-21 06:05:00,17.3,12.2,29.91,WSW,250,3.0,12.0,80,0.00,,,0.00,Wunderground v.1.15,2013-02-21 11:05:00,
2013-02-21 06:06:00,17.3,12.2,29.91,West,272,2.0,12.0,80,0.00,,,0.00,Wunderground v.1.15,2013-02-21 11:06:00,
2013-02-21 06:09:00,17.3,12.2,29.91,NW,306,4.0,11.0,80,0.00,,,0.00,Wunderground v.1.15,2013-02-21 11:09:00,
2013-02-21 06:10:00,17.3,11.9,29.91,West,261,9.0,11.0,79,0.00,,,0.00,Wunderground v.1.15,2013-02-21 11:10:00,
2013-02-21 06:11:00,17.3,11.9,29.91,West,277,6.0,11.0,79,0.00,,,0.00,Wunderground v.1.15,2013-02-21 11:11:00,
2013-02-21 06:12:00,17.3,11.9,29.91,WNW,284,6.0,11.0,79,0.00,,,0.00,Wunderground v.1.15,2013-02-21 11:12:00,
2013-02-21 06:14:00,17.3,11.9,29.91,West,281,2.0,11.0,79,0.00,,,0.00,Wunderground v.1.15,2013-02-21 11:14:00,
2013-02-21 06:16:00,17.3,11.9,29.91,WNW,296,7.0,12.0,79,0.00,,,0.00,Wunderground v.1.15,2013-02-21 11:16:00,
2013-02-21 06:17:00,17.3,11.9,29.91,West,277,5.0,12.0,79,0.00,,,0.00,Wunderground v.1.15,2013-02-21 11:17:00,
2013-02-21 06:18:00,17.3,11.9,29.91,West,275,4.0,5.0,79,0.00,,,0.00,Wunderground v.1.15,2013-02-21 11:18:00,
2013-02-21 06:22:00,17.3,11.6,29.91,West,269,3.0,10.0,78,0.00,,,0.00,Wunderground v.1.15,2013-02-21 11:22:00,
2013-02-21 06:23:00,17.3,11.6,29.91,West,263,3.0,10.0,78,0.00,,,0.00,Wunderground v.1.15,2013-02-21 11:23:00,
2013-02-21 06:25:00,17.2,11.8,29.91,NW,305,1.0,10.0,79,0.00,,,0.00,Wunderground v.1.15,2013-02-21 11:25:00,
2013-02-21 06:28:00,17.2,11.8,29.92,SE,142,2.0,8.0,79,0.00,,,0.00,Wunderground v.1.15,2013-02-21 11:28:00,
2013-02-21 06:29:00,17.2,11.5,29.91,West,279,11.0,11.0,78,0.00,,,0.00,Wunderground v.1.15,2013-02-21 11:29:00,
2013-02-21 06:30:00,17.2,11.5,29.92,NW,311,0.0,11.0,78,0.00,,,0.00,Wunderground v.1.15,2013-02-21 11:30:00,
2013-02-21 06:33:00,17.2,11.5,29.92,WNW,292,5.0,11.0,78,0.00,,,0.00,Wunderground v.1.15,2013-02-21 11:33:00,
2013-02-21 06:34:00,17.2,11.5,29.92,West,268,2.0,11.0,78,0.00,,,0.00,Wunderground v.1.15,2013-02-21 11:34:00,
2013-02-21 06:35:00,17.2,11.5,29.92,WNW,302,2.0,11.0,78,0.00,,,0.00,Wunderground v.1.15,2013-02-21 11:35:00,
2013-02-21 06:37:00,17.2,11.5,29.92,NNW,335,3.0,11.0,78,0.00,,,0.00,Wunderground v.1.15,2013-02-21 11:37:00,
2013-02-21 06:38:00,17.1,11.4,29.92,WNW,284,3.0,4.0,78,0.00,,,0.00,Wunderground v.1.15,2013-02-21 11:38:00,
2013-02-21 06:39:00,17.1,11.4,29.92,West,273,4.0,5.0,78,0.00,,,0.00,Wunderground v.1.15,2013-02-21 11:39:00,
2013-02-21 06:40:00,17.1,11.4,29.92,West,280,2.0,5.0,78,0.00,,,0.00,Wunderground v.1.15,2013-02-21 11:40:00,
2013-02-21 06:43:00,17.1,11.4,29.92,NNW,334,3.0,5.0,78,0.00,,,0.00,Wunderground v.1.15,2013-02-21 11:43:00,
2013-02-21 06:45:00,17.1,11.4,29.92,West,267,5.0,5.0,78,0.00,,,0.00,Wunderground v.1.15,2013-02-21 11:45:00,
2013-02-21 06:46:00,17.1,11.4,29.92,WNW,292,7.0,7.0,78,0.00,,,0.00,Wunderground v.1.15,2013-02-21 11:46:00,
2013-02-21 06:49:00,17.1,11.1,29.93,WNW,302,2.0,8.0,77,0.00,,,0.00,Wunderground v.1.15,2013-02-21 11:49:00,
2013-02-21 06:51:00,17.1,11.1,29.92,North,360,1.0,8.0,77,0.00,,,0.00,Wunderground v.1.15,2013-02-21 11:51:00,
2013-02-21 06:52:00,17.1,11.4,29.93,WSW,237,6.0,8.0,78,0.00,,,0.00,Wunderground v.1.15,2013-02-21 11:52:00,
2013-02-21 06:56:00,17.1,11.1,29.93,WNW,301,2.0,8.0,77,0.00,,,0.00,Wunderground v.1.15,2013-02-21 11:56:00,
2013-02-21 06:57:00,17.0,11.0,29.93,West,259,3.0,8.0,77,0.00,,,0.00,Wunderground v.1.15,2013-02-21 11:57:00,
2013-02-21 06:58:00,17.0,11.0,29.93,North,5,7.0,8.0,77,0.00,,,0.00,Wunderground v.1.15,2013-02-21 11:58:00,
2013-02-21 07:00:00,17.0,11.0,29.93,West,278,8.0,9.0,77,0.00,,,0.00,Wunderground v.1.15,2013-02-21 12:00:00,
2013-02-21 07:01:00,16.9,10.6,29.94,West,276,5.0,11.0,76,0.00,,,0.00,Wunderground v.1.15,2013-02-21 12:01:00,
2013-02-21 07:02:00,16.9,10.6,29.93,WNW,294,5.0,11.0,76,0.00,,,0.00,Wunderground v.1.15,2013-02-21 12:02:00,
2013-02-21 07:06:00,16.8,10.5,29.93,West,263,6.0,11.0,76,0.00,,,0.00,Wunderground v.1.15,2013-02-21 12:06:00,
2013-02-21 07:07:00,16.8,10.5,29.94,West,271,4.0,11.0,76,0.00,,,0.00,Wunderground v.1.15,2013-02-21 12:07:00,
2013-02-21 07:09:00,16.8,10.5,29.94,WNW,283,4.0,7.0,76,0.00,,,0.00,Wunderground v.1.15,2013-02-21 12:09:00,
2013-02-21 07:11:00,16.8,10.8,29.94,WNW,286,4.0,7.0,77,0.00,,,0.00,Wunderground v.1.15,2013-02-21 12:11:00,
2013-02-21 07:13:00,16.8,10.5,29.94,WNW,283,7.0,11.0,76,0.00,,,0.00,Wunderground v.1.15,2013-02-21 12:13:00,
2013-02-21 07:14:00,16.8,10.5,29.94,SW,231,7.0,11.0,76,0.00,,,0.00,Wunderground v.1.15,2013-02-21 12:14:00,
2013-02-21 07:17:00,16.8,10.5,29.94,WSW,252,8.0,11.0,76,0.00,,,0.00,Wunderground v.1.15,2013-02-21 12:17:00,
2013-02-21 07:20:00,16.8,10.5,29.94,NNW,343,8.0,8.0,76,0.00,,,0.00,Wunderground v.1.15,2013-02-21 12:20:00,
2013-02-21 07:22:00,16.7,10.4,29.94,North,11,7.0,8.0,76,0.00,,,0.00,Wunderground v.1.15,2013-02-21 12:22:00,
2013-02-21 07:23:00,16.7,10.4,29.94,WSW,251,4.0,8.0,76,0.00,,,0.00,Wunderground v.1.15,2013-02-21 12:23:00,
2013-02-21 07:25:00,16.7,10.1,29.94,NNW,331,2.0,8.0,75,0.00,,,0.00,Wunderground v.1.15,2013-02-21 12:25:00,
2013-02-21 07:26:00,16.7,10.1,29.94,WNW,286,7.0,8.0,75,0.00,,,0.00,Wunderground v.1.15,2013-02-21 12:26:00,
2013-02-21 07:29:00,16.6,10.1,29.94,NW,309,0.0,6.0,75,0.00,,,0.00,Wunderground v.1.15,2013-02-21 12:29:00,
2013-02-21 07:30:00,16.6,10.1,29.95,NNW,332,4.0,6.0,75,0.00,,,0.00,Wunderground v.1.15,2013-02-21 12:30:00,
2013-02-21 07:31:00,16.6,10.1,29.95,NE,44,2.0,6.0,75,0.00,,,0.00,Wunderground v.1.15,2013-02-21 12:31:00,
2013-02-21 07:34:00,16.5,10.0,29.95,WSW,241,2.0,9.0,75,0.00,,,0.00,Wunderground v.1.15,2013-02-21 12:34:00,
2013-02-21 07:35:00,16.4,9.9,29.95,WSW,250,3.0,9.0,75,0.00,,,0.00,Wunderground v.1.15,2013-02-21 12:35:00,
2013-02-21 07:38:00,16.3,9.8,29.95,NW,313,4.0,4.0,75,0.00,,,0.00,Wunderground v.1.15,2013-02-21 12:38:00,
2013-02-21 07:40:00,16.2,9.4,29.96,West,259,6.0,6.0,74,0.00,,,0.00,Wunderground v.1.15,2013-02-21 12:40:00,
2013-02-21 07:41:00,16.2,9.4,29.96,West,281,5.0,6.0,74,0.00,,,0.00,Wunderground v.1.15,2013-02-21 12:41:00,
2013-02-21 07:43:00,16.2,9.4,29.96,West,260,3.0,6.0,74,0.00,,,0.00,Wunderground v.1.15,2013-02-21 12:43:00,
2013-02-21 07:45:00,16.2,9.7,29.96,West,272,4.0,6.0,75,0.00,,,0.00,Wunderground v.1.15,2013-02-21 12:45:00,
2013-02-21 07:46:00,16.2,9.7,29.96,NW,317,2.0,6.0,75,0.00,,,0.00,Wunderground v.1.15,2013-02-21 12:46:00,
2013-02-21 07:49:00,16.3,9.8,29.95,West,278,2.0,4.0,75,0.00,,,0.00,Wunderground v.1.15,2013-02-21 12:49:00,
2013-02-21 07:51:00,16.3,9.8,29.96,NW,304,3.0,5.0,75,0.00,,,0.00,Wunderground v.1.15,2013-02-21 12:51:00,
2013-02-21 07:53:00,16.2,9.7,29.96,NW,319,4.0,6.0,75,0.00,,,0.00,Wunderground v.1.15,2013-02-21 12:53:00,
2013-02-21 07:56:00,16.1,9.0,29.96,West,269,8.0,8.0,73,0.00,,,0.00,Wunderground v.1.15,2013-02-21 12:56:00,
2013-02-21 07:58:00,15.9,8.8,29.96,West,279,2.0,5.0,73,0.00,,,0.00,Wunderground v.1.15,2013-02-21 12:58:00,
2013-02-21 07:59:00,15.9,8.8,29.96,WSW,257,3.0,5.0,73,0.00,,,0.00,Wunderground v.1.15,2013-02-21 12:59:00,
2013-02-21 08:02:00,15.9,8.8,29.96,NW,321,4.0,8.0,73,0.00,,,0.00,Wunderground v.1.15,2013-02-21 13:02:00,
2013-02-21 08:04:00,15.9,8.8,29.97,WSW,252,5.0,8.0,73,0.00,,,0.00,Wunderground v.1.15,2013-02-21 13:04:00,
2013-02-21 08:06:00,15.8,8.7,29.97,NW,321,1.0,8.0,73,0.00,,,0.00,Wunderground v.1.15,2013-02-21 13:06:00,
2013-02-21 08:09:00,15.8,8.4,29.97,West,269,4.0,7.0,72,0.00,,,0.00,Wunderground v.1.15,2013-02-21 13:09:00,
2013-02-21 08:11:00,15.7,8.3,29.97,West,263,8.0,8.0,72,0.00,,,0.00,Wunderground v.1.15,2013-02-21 13:11:00,
2013-02-21 08:14:00,15.6,8.2,29.96,West,269,5.0,9.0,72,0.00,,,0.00,Wunderground v.1.15,2013-02-21 13:14:00,
2013-02-21 08:15:00,15.6,8.2,29.96,WNW,299,4.0,9.0,72,0.00,,,0.00,Wunderground v.1.15,2013-02-21 13:15:00,
2013-02-21 08:16:00,15.6,8.5,29.96,West,273,10.0,10.0,73,0.00,,,0.00,Wunderground v.1.15,2013-02-21 13:16:00,
2013-02-21 08:17:00,15.6,8.5,29.96,NNW,336,2.0,10.0,73,0.00,,,0.00,Wunderground v.1.15,2013-02-21 13:17:00,
2013-02-21 08:20:00,15.7,8.3,29.97,WNW,286,3.0,5.0,72,0.00,,,0.00,Wunderground v.1.15,2013-02-21 13:20:00,
2013-02-21 08:23:00,15.8,8.4,29.96,NNW,332,4.0,9.0,72,0.00,,,0.00,Wunderground v.1.15,2013-02-21 13:23:00,
2013-02-21 08:24:00,15.8,8.4,29.96,NW,320,3.0,9.0,72,0.00,,,0.00,Wunderground v.1.15,2013-02-21 13:24:00,
2013-02-21 08:25:00,15.8,8.4,29.97,North,5,9.0,9.0,72,0.00,,,0.00,Wunderground v.1.15,2013-02-21 13:25:00,
2013-02-21 08:26:00,15.7,8.3,29.97,West,273,4.0,9.0,72,0.00,,,0.00,Wunderground v.1.15,2013-02-21 13:26:00,
2013-02-21 08:29:00,15.6,7.9,29.98,SW,236,7.0,10.0,71,0.00,,,0.00,Wunderground v.1.15,2013-02-21 13:29:00,
2013-02-21 08:30:00,15.5,7.8,29.98,WNW,294,3.0,10.0,71,0.00,,,0.00,Wunderground v.1.15,2013-02-21 13:30:00,
2013-02-21 08:32:00,15.4,7.7,29.98,WNW,292,2.0,10.0,71,0.00,,,0.00,Wunderground v.1.15,2013-02-21 13:32:00,
2013-02-21 08:33:00,15.3,7.6,29.98,West,275,5.0,14.0,71,0.00,,,0.00,Wunderground v.1.15,2013-02-21 13:33:00,
2013-02-21 08:35:00,15.3,7.6,29.98,WNW,282,10.0,14.0,71,0.00,,,0.00,Wunderground v.1.15,2013-02-21 13:35:00,
2013-02-21 08:37:00,15.3,7.9,29.97,WNW,302,4.0,5.0,72,0.00,,,0.00,Wunderground v.1.15,2013-02-21 13:37:00,
2013-02-21 08:39:00,15.4,8.0,29.97,WSW,258,6.0,10.0,72,0.00,,,0.00,Wunderground v.1.15,2013-02-21 13:39:00,
2013-02-21 08:40:00,15.4,8.0,29.97,NW,313,9.0,10.0,72,0.00,,,0.00,Wunderground v.1.15,2013-02-21 13:40:00,
2013-02-21 08:42:00,15.4,8.0,29.97,West,272,5.0,10.0,72,0.00,,,0.00,Wunderground v.1.15,2013-02-21 13:42:00,
2013-02-21 08:44:00,15.4,8.0,29.96,West,277,6.0,10.0,72,0.00,,,0.00,Wunderground v.1.15,2013-02-21 13:44:00,
2013-02-21 08:46:00,15.5,8.1,29.97,WNW,290,3.0,10.0,72,0.00,,,0.00,Wunderground v.1.15,2013-02-21 13:46:00,
2013-02-21 08:47:00,15.5,8.4,29.97,West,259,7.0,7.0,73,0.00,,,0.00,Wunderground v.1.15,2013-02-21 13:47:00,
2013-02-21 08:49:00,15.4,8.0,29.97,NW,309,4.0,7.0,72,0.00,,,0.00,Wunderground v.1.15,2013-02-21 13:49:00,
2013-02-21 08:51:00,15.4,8.0,29.97,SW,236,6.0,7.0,72,0.00,,,0.00,Wunderground v.1.15,2013-02-21 13:51:00,
2013-02-21 08:53:00,15.4,8.0,29.97,WNW,300,4.0,8.0,72,0.00,,,0.00,Wunderground v.1.15,2013-02-21 13:53:00,
2013-02-21 08:55:00,15.3,7.9,29.98,West,276,2.0,8.0,72,0.00,,,0.00,Wunderground v.1.15,2013-02-21 13:55:00,
2013-02-21 08:56:00,15.3,7.9,29.98,NW,312,3.0,8.0,72,0.00,,,0.00,Wunderground v.1.15,2013-02-21 13:56:00,
2013-02-21 08:57:00,15.3,7.9,29.98,WNW,292,1.0,8.0,72,0.00,,,0.00,Wunderground v.1.15,2013-02-21 13:57:00,
2013-02-21 08:59:00,15.3,7.9,29.98,WNW,292,5.0,6.0,72,0.00,,,0.00,Wunderground v.1.15,2013-02-21 13:59:00,
2013-02-21 09:01:00,15.3,7.9,29.98,North,5,6.0,10.0,72,0.00,,,0.00,Wunderground v.1.15,2013-02-21 14:01:00,
2013-02-21 09:02:00,15.3,8.2,29.98,WNW,300,0.0,10.0,73,0.00,,,0.00,Wunderground v.1.15,2013-02-21 14:02:00,
2013-02-21 09:03:00,15.3,8.2,29.98,WNW,283,2.0,10.0,73,0.00,,,0.00,Wunderground v.1.15,2013-02-21 14:03:00,
2013-02-21 09:04:00,15.4,8.3,29.98,NNW,336,3.0,10.0,73,0.00,,,0.00,Wunderground v.1.15,2013-02-21 14:04:00,
2013-02-21 09:08:00,15.5,8.4,29.98,WNW,292,4.0,6.0,73,0.00,,,0.00,Wunderground v.1.15,2013-02-21 14:08:00,
2013-02-21 09:10:00,15.5,8.4,29.98,WNW,293,7.0,7.0,73,0.00,,,0.00,Wunderground v.1.15,2013-02-21 14:10:00,
2013-02-21 09:14:00,15.5,8.4,29.98,NW,315,4.0,7.0,73,0.00,,,0.00,Wunderground v.1.15,2013-02-21 14:14:00,
2013-02-21 09:15:00,15.6,8.5,29.98,WNW,296,7.0,7.0,73,0.00,,,0.00,Wunderground v.1.15,2013-02-21 14:15:00,
2013-02-21 09:16:00,15.6,8.5,29.97,West,277,9.0,9.0,73,0.00,,,0.00,Wunderground v.1.15,2013-02-21 14:16:00,
2013-02-21 09:20:00,15.4,8.3,29.97,WNW,294,10.0,13.0,73,0.00,,,0.00,Wunderground v.1.15,2013-02-21 14:20:00,
2013-02-21 09:21:00,15.4,8.3,29.97,SW,228,2.0,13.0,73,0.00,,,0.00,Wunderground v.1.15,2013-02-21 14:21:00,
2013-02-21 09:22:00,15.3,8.2,29.98,NW,317,5.0,13.0,73,0.00,,,0.00,Wunderground v.1.15,2013-02-21 14:22:00,
2013-02-21 09:26:00,15.1,8.0,29.98,NW,321,10.0,13.0,73,0.00,,,0.00,Wunderground v.1.15,2013-02-21 14:26:00,
2013-02-21 09:27:00,15.2,8.1,29.98,WNW,290,8.0,13.0,73,0.00,,,0.00,Wunderground v.1.15,2013-02-21 14:27:00,
2013-02-21 09:28:00,15.1,8.0,29.98,West,266,6.0,6.0,73,0.00,,,0.00,Wunderground v.1.15,2013-02-21 14:28:00,
2013-02-21 09:32:00,15.3,8.2,29.98,WNW,288,5.0,7.0,73,0.00,,,0.00,Wunderground v.1.15,2013-02-21 14:32:00,
2013-02-21 09:33:00,15.3,8.2,29.98,West,279,7.0,7.0,73,0.00,,,0.00,Wunderground v.1.15,2013-02-21 14:33:00,
2013-02-21 09:34:00,15.3,8.2,29.98,West,267,1.0,7.0,73,0.00,,,0.00,Wunderground v.1.15,2013-02-21 14:34:00,
2013-02-21 09:35:00,15.3,8.2,29.98,WNW,286,1.0,7.0,73,0.00,,,0.00,Wunderground v.1.15,2013-02-21 14:35:00,
2013-02-21 09:38:00,15.4,8.3,29.98,West,274,10.0,10.0,73,0.00,,,0.00,Wunderground v.1.15,2013-02-21 14:38:00,
2013-02-21 09:40:00,15.3,7.9,29.98,WNW,301,3.0,10.0,72,0.00,,,0.00,Wunderground v.1.15,2013-02-21 14:40:00,
2013-02-21 09:41:00,15.3,7.9,29.98,NNE,19,6.0,10.0,72,0.00,,,0.00,Wunderground v.1.15,2013-02-21 14:41:00,
2013-02-21 09:44:00,15.4,8.0,29.98,West,270,5.0,10.0,72,0.00,,,0.00,Wunderground v.1.15,2013-02-21 14:44:00,
2013-02-21 09:45:00,15.4,8.0,29.98,West,280,8.0,10.0,72,0.00,,,0.00,Wunderground v.1.15,2013-02-21 14:45:00,
2013-02-21 09:46:00,15.4,8.0,29.99,NW,311,9.0,16.0,72,0.00,,,0.00,Wunderground v.1.15,2013-02-21 14:46:00,
2013-02-21 09:47:00,15.4,8.0,29.99,WSW,256,2.0,5.0,72,0.00,,,0.00,Wunderground v.1.15,2013-02-21 14:47:00,
2013-02-21 09:49:00,15.3,7.9,29.99,NNE,29,0.0,9.0,72,0.00,,,0.00,Wunderground v.1.15,2013-02-21 14:49:00,
2013-02-21 09:52:00,15.4,8.0,29.99,NW,306,5.0,9.0,72,0.00,,,0.00,Wunderground v.1.15,2013-02-21 14:52:00,
2013-02-21 09:53:00,15.3,7.9,29.99,WNW,300,6.0,9.0,72,0.00,,,0.00,Wunderground v.1.15,2013-02-21 14:53:00,
2013-02-21 09:55:00,15.2,7.8,29.99,NW,311,5.0,9.0,72,0.00,,,0.00,Wunderground v.1.15,2013-02-21 14:55:00,
2013-02-21 09:57:00,15.1,7.7,30.00,WNW,303,8.0,9.0,72,0.00,,,0.00,Wunderground v.1.15,2013-02-21 14:57:00,
2013-02-21 09:59:00,15.1,7.7,30.00,West,275,4.0,5.0,72,0.00,,,0.00,Wunderground v.1.15,2013-02-21 14:59:00,
2013-02-21 10:00:00,15.2,7.8,30.00,NNW,333,5.0,5.0,72,0.00,,,0.00,Wunderground v.1.15,2013-02-21 15:00:00,
2013-02-21 10:03:00,15.3,8.2,30.00,North,355,10.0,10.0,73,0.00,,,0.00,Wunderground v.1.15,2013-02-21 15:03:00,
2013-02-21 10:05:00,15.1,7.7,30.00,WNW,292,5.0,10.0,72,0.00,,,0.00,Wunderground v.1.15,2013-02-21 15:05:00,
2013-02-21 10:06:00,15.1,7.7,30.00,West,277,2.0,10.0,72,0.00,,,0.00,Wunderground v.1.15,2013-02-21 15:06:00,
2013-02-21 10:08:00,15.0,7.9,30.00,SW,234,7.0,7.0,73,0.00,,,0.00,Wunderground v.1.15,2013-02-21 15:08:00,
2013-02-21 10:11:00,15.0,7.9,30.00,NW,308,1.0,7.0,73,0.00,,,0.00,Wunderground v.1.15,2013-02-21 15:11:00,
2013-02-21 10:12:00,15.0,7.9,30.00,West,281,3.0,7.0,73,0.00,,,0.00,Wunderground v.1.15,2013-02-21 15:12:00,
2013-02-21 10:13:00,15.0,7.9,30.00,WSW,250,3.0,7.0,73,0.00,,,0.00,Wunderground v.1.15,2013-02-21 15:13:00,
2013-02-21 10:14:00,15.0,8.2,30.00,WNW,292,4.0,7.0,74,0.00,,,0.00,Wunderground v.1.15,2013-02-21 15:14:00,
2013-02-21 10:19:00,15.2,8.4,30.00,WSW,250,2.0,4.0,74,0.00,,,0.00,Wunderground v.1.15,2013-02-21 15:19:00,
2013-02-21 10:21:00,15.2,8.4,30.00,WNW,296,3.0,8.0,74,0.00,,,0.00,Wunderground v.1.15,2013-02-21 15:21:00,
2013-02-21 10:24:00,15.0,8.2,30.00,WSW,247,1.0,17.0,74,0.00,,,0.00,Wunderground v.1.15,2013-02-21 15:24:00,
2013-02-21 10:26:00,14.8,8.0,30.00,WNW,286,8.0,17.0,74,0.00,,,0.00,Wunderground v.1.15,2013-02-21 15:26:00,
2013-02-21 10:29:00,14.6,8.1,30.00,NNW,332,6.0,10.0,75,0.00,,,0.00,Wunderground v.1.15,2013-02-21 15:29:00,
2013-02-21 10:30:00,14.5,8.0,30.01,West,273,9.0,11.0,75,0.00,,,0.00,Wunderground v.1.15,2013-02-21 15:30:00,
2013-02-21 10:31:00,14.5,8.0,30.01,West,268,5.0,11.0,75,0.00,,,0.00,Wunderground v.1.15,2013-02-21 15:31:00,
2013-02-21 10:32:00,14.5,8.0,30.01,NW,326,3.0,11.0,75,0.00,,,0.00,Wunderground v.1.15,2013-02-21 15:32:00,
2013-02-21 10:35:00,14.5,8.0,30.01,West,263,3.0,11.0,75,0.00,,,0.00,Wunderground v.1.15,2013-02-21 15:35:00,
2013-02-21 10:37:00,14.6,8.1,30.01,NW,319,12.0,12.0,75,0.00,,,0.00,Wunderground v.1.15,2013-02-21 15:37:00,
2013-02-21 10:38:00,14.6,8.1,30.01,West,281,4.0,5.0,75,0.00,,,0.00,Wunderground v.1.15,2013-02-21 15:38:00,
2013-02-21 10:40:00,14.8,8.3,30.01,WNW,284,3.0,6.0,75,0.00,,,0.00,Wunderground v.1.15,2013-02-21 15:40:00,
2013-02-21 10:41:00,14.7,8.2,30.01,WNW,282,4.0,16.0,75,0.00,,,0.00,Wunderground v.1.15,2013-02-21 15:41:00,
2013-02-21 10:43:00,14.7,8.2,30.01,WSW,255,0.0,16.0,75,0.00,,,0.00,Wunderground v.1.15,2013-02-21 15:43:00,
2013-02-21 10:45:00,14.7,8.2,30.01,WNW,283,5.0,16.0,75,0.00,,,0.00,Wunderground v.1.15,2013-02-21 15:45:00,
2013-02-21 10:47:00,14.7,8.2,30.01,WNW,284,8.0,16.0,75,0.00,,,0.00,Wunderground v.1.15,2013-02-21 15:47:00,
2013-02-21 10:48:00,14.7,8.2,30.01,West,273,9.0,9.0,75,0.00,,,0.00,Wunderground v.1.15,2013-02-21 15:48:00,
2013-02-21 10:51:00,14.6,8.1,30.02,WNW,290,8.0,9.0,75,0.00,,,0.00,Wunderground v.1.15,2013-02-21 15:51:00,
2013-02-21 10:53:00,14.5,7.7,30.02,NW,307,3.0,14.0,74,0.00,,,0.00,Wunderground v.1.15,2013-02-21 15:53:00,
2013-02-21 10:54:00,14.5,7.7,30.01,West,265,10.0,14.0,74,0.00,,,0.00,Wunderground v.1.15,2013-02-21 15:54:00,
2013-02-21 10:55:00,14.4,7.9,30.01,WNW,302,6.0,14.0,75,0.00,,,0.00,Wunderground v.1.15,2013-02-21 15:55:00,
2013-02-21 10:56:00,14.3,7.8,30.01,West,281,6.0,14.0,75,0.00,,,0.00,Wunderground v.1.15,2013-02-21 15:56:00,
2013-02-21 10:58:00,14.3,7.8,30.01,WNW,292,9.0,9.0,75,0.00,,,0.00,Wunderground v.1.15,2013-02-21 15:58:00,
2013-02-21 11:00:00,14.3,7.8,30.01,WNW,282,9.0,9.0,75,0.00,,,0.00,Wunderground v.1.15,2013-02-21 16:00:00,
2013-02-21 11:01:00,14.3,7.8,30.02,WNW,285,10.0,10.0,75,0.00,,,0.00,Wunderground v.1.15,2013-02-21 16:01:00,
2013-02-21 11:04:00,14.3,7.8,30.02,WNW,289,6.0,17.0,75,0.00,,,0.00,Wunderground v.1.15,2013-02-21 16:04:00,
2013-02-21 11:05:00,14.4,7.9,30.02,WNW,296,4.0,17.0,75,0.00,,,0.00,Wunderground v.1.15,2013-02-21 16:05:00,
2013-02-21 11:06:00,14.4,7.9,30.02,NW,306,3.0,17.0,75,0.00,,,0.00,Wunderground v.1.15,2013-02-21 16:06:00,
2013-02-21 11:07:00,14.4,7.6,30.02,NNW,330,4.0,17.0,74,0.00,,,0.00,Wunderground v.1.15,2013-02-21 16:07:00,
2013-02-21 11:10:00,14.6,7.8,30.03,WSW,257,2.0,11.0,74,0.00,,,0.00,Wunderground v.1.15,2013-02-21 16:10:00,
2013-02-21 11:11:00,14.6,7.8,30.02,NW,324,1.0,11.0,74,0.00,,,0.00,Wunderground v.1.15,2013-02-21 16:11:00,
2013-02-21 11:13:00,14.6,7.8,30.03,WNW,302,12.0,12.0,74,0.00,,,0.00,Wunderground v.1.15,2013-02-21 16:13:00,
2013-02-21 11:16:00,14.4,7.6,30.03,WNW,284,3.0,12.0,74,0.00,,,0.00,Wunderground v.1.15,2013-02-21 16:16:00,
2013-02-21 11:18:00,14.4,7.6,30.03,WNW,284,5.0,5.0,74,0.00,,,0.00,Wunderground v.1.15,2013-02-21 16:18:00,
2013-02-21 11:19:00,14.5,7.7,30.03,WNW,292,3.0,5.0,74,0.00,,,0.00,Wunderground v.1.15,2013-02-21 16:19:00,
2013-02-21 11:21:00,14.6,7.8,30.03,West,270,7.0,10.0,74,0.00,,,0.00,Wunderground v.1.15,2013-02-21 16:21:00,
2013-02-21 11:23:00,14.8,8.0,30.03,WSW,253,2.0,10.0,74,0.00,,,0.00,Wunderground v.1.15,2013-02-21 16:23:00,
2013-02-21 11:26:00,15.3,8.2,30.03,West,274,3.0,13.0,73,0.00,,,0.00,Wunderground v.1.15,2013-02-21 16:26:00,
2013-02-21 11:27:00,15.5,8.7,30.03,West,280,3.0,13.0,74,0.00,,,0.00,Wunderground v.1.15,2013-02-21 16:27:00,
2013-02-21 11:28:00,15.7,8.9,30.03,West,259,7.0,7.0,74,0.00,,,0.00,Wunderground v.1.15,2013-02-21 16:28:00,
2013-02-21 11:29:00,15.9,8.8,30.03,SW,233,1.0,7.0,73,0.00,,,0.00,Wunderground v.1.15,2013-02-21 16:29:00,
2013-02-21 11:31:00,16.3,9.2,30.03,WNW,288,3.0,12.0,73,0.00,,,0.00,Wunderground v.1.15,2013-02-21 16:31:00,
2013-02-21 11:33:00,16.6,9.1,30.03,WNW,296,4.0,12.0,72,0.00,,,0.00,Wunderground v.1.15,2013-02-21 16:33:00,
2013-02-21 11:34:00,16.6,9.1,30.03,West,276,10.0,12.0,72,0.00,,,0.00,Wunderground v.1.15,2013-02-21 16:34:00,
2013-02-21 11:37:00,16.6,8.8,30.03,NW,310,4.0,12.0,71,0.00,,,0.00,Wunderground v.1.15,2013-02-21 16:37:00,
2013-02-21 11:38:00,16.6,8.8,30.03,WNW,282,4.0,5.0,71,0.00,,,0.00,Wunderground v.1.15,2013-02-21 16:38:00,
2013-02-21 11:40:00,16.6,8.8,30.03,WNW,286,8.0,8.0,71,0.00,,,0.00,Wunderground v.1.15,2013-02-21 16:40:00,
2013-02-21 11:41:00,16.6,8.8,30.03,WNW,287,8.0,8.0,71,0.00,,,0.00,Wunderground v.1.15,2013-02-21 16:41:00,
2013-02-21 11:42:00,16.5,8.7,30.03,WNW,298,2.0,8.0,71,0.00,,,0.00,Wunderground v.1.15,2013-02-21 16:42:00,
2013-02-21 11:43:00,16.6,8.8,30.03,West,275,5.0,8.0,71,0.00,,,0.00,Wunderground v.1.15,2013-02-21 16:43:00,
2013-02-21 11:46:00,16.3,8.2,30.03,NW,315,4.0,11.0,70,0.00,,,0.00,Wunderground v.1.15,2013-02-21 16:46:00,
2013-02-21 11:48:00,16.1,8.3,30.03,North,355,3.0,8.0,71,0.00,,,0.00,Wunderground v.1.15,2013-02-21 16:48:00,
2013-02-21 11:49:00,16.1,8.3,30.03,NNW,332,6.0,8.0,71,0.00,,,0.00,Wunderground v.1.15,2013-02-21 16:49:00,
2013-02-21 11:53:00,16.2,8.8,30.03,East,83,5.0,8.0,72,0.00,,,0.00,Wunderground v.1.15,2013-02-21 16:53:00,
2013-02-21 11:54:00,16.0,8.3,30.04,West,277,5.0,10.0,71,0.00,,,0.00,Wunderground v.1.15,2013-02-21 16:54:00,
2013-02-21 11:55:00,15.9,8.2,30.04,WNW,284,7.0,10.0,71,0.00,,,0.00,Wunderground v.1.15,2013-02-21 16:55:00,
2013-02-21 11:58:00,15.8,8.1,30.04,NNW,337,1.0,5.0,71,0.00,,,0.00,Wunderground v.1.15,2013-02-21 16:58:00,
2013-02-21 12:00:00,15.9,8.5,30.04,WNW,296,6.0,9.0,72,0.00,,,0.00,Wunderground v.1.15,2013-02-21 17:00:00,
2013-02-21 12:02:00,15.9,8.5,30.03,South,178,6.0,9.0,72,0.00,,,0.00,Wunderground v.1.15,2013-02-21 17:02:00,
2013-02-21 12:03:00,16.0,8.6,30.03,NE,34,2.0,9.0,72,0.00,,,0.00,Wunderground v.1.15,2013-02-21 17:03:00,
2013-02-21 12:05:00,16.1,8.7,30.04,WNW,299,5.0,9.0,72,0.00,,,0.00,Wunderground v.1.15,2013-02-21 17:05:00,
2013-02-21 12:07:00,16.2,8.8,30.03,West,263,7.0,7.0,72,0.00,,,0.00,Wunderground v.1.15,2013-02-21 17:07:00,
2013-02-21 12:08:00,16.1,8.3,30.03,West,277,7.0,7.0,71,0.00,,,0.00,Wunderground v.1.15,2013-02-21 17:08:00,
2013-02-21 12:09:00,15.9,8.2,30.03,WSW,250,7.0,8.0,71,0.00,,,0.00,Wunderground v.1.15,2013-02-21 17:09:00,
2013-02-21 12:11:00,15.9,8.2,30.03,WSW,248,2.0,9.0,71,0.00,,,0.00,Wunderground v.1.15,2013-02-21 17:11:00,
2013-02-21 12:13:00,16.0,8.3,30.03,West,279,6.0,9.0,71,0.00,,,0.00,Wunderground v.1.15,2013-02-21 17:13:00,
2013-02-21 12:14:00,16.1,8.3,30.03,WNW,294,3.0,9.0,71,0.00,,,0.00,Wunderground v.1.15,2013-02-21 17:14:00,
2013-02-21 12:18:00,16.1,8.3,30.03,NW,311,5.0,8.0,71,0.00,,,0.00,Wunderground v.1.15,2013-02-21 17:18:00,
2013-02-21 12:19:00,16.1,8.0,30.03,WNW,298,4.0,9.0,70,0.00,,,0.00,Wunderground v.1.15,2013-02-21 17:19:00,
2013-02-21 12:20:00,16.2,8.4,30.03,West,261,10.0,10.0,71,0.00,,,0.00,Wunderground v.1.15,2013-02-21 17:20:00,
2013-02-21 12:23:00,16.7,8.9,30.03,SW,228,3.0,10.0,71,0.00,,,0.00,Wunderground v.1.15,2013-02-21 17:23:00,
2013-02-21 12:24:00,17.0,9.2,30.03,NW,314,6.0,11.0,71,0.00,,,0.00,Wunderground v.1.15,2013-02-21 17:24:00,
2013-02-21 12:29:00,17.7,9.9,30.03,SW,226,4.0,9.0,71,0.00,,,0.00,Wunderground v.1.15,2013-02-21 17:29:00,
2013-02-21 12:32:00,17.5,9.4,30.03,West,279,3.0,9.0,70,0.00,,,0.00,Wunderground v.1.15,2013-02-21 17:32:00,
2013-02-21 12:35:00,17.3,9.2,30.03,West,259,3.0,9.0,70,0.00,,,0.00,Wunderground v.1.15,2013-02-21 17:35:00,
2013-02-21 12:36:00,17.4,9.3,30.03,NW,325,4.0,9.0,70,0.00,,,0.00,Wunderground v.1.15,2013-02-21 17:36:00,
2013-02-21 12:37:00,17.5,9.7,30.03,West,275,2.0,9.0,71,0.00,,,0.00,Wunderground v.1.15,2013-02-21 17:37:00,
2013-02-21 12:40:00,18.1,10.3,30.03,West,263,4.0,7.0,71,0.00,,,0.00,Wunderground v.1.15,2013-02-21 17:40:00,
2013-02-21 12:41:00,18.2,10.4,30.03,WNW,291,3.0,7.0,71,0.00,,,0.00,Wunderground v.1.15,2013-02-21 17:41:00,
2013-02-21 12:43:00,18.3,10.1,30.03,West,259,4.0,11.0,70,0.00,,,0.00,Wunderground v.1.15,2013-02-21 17:43:00,
2013-02-21 12:46:00,18.1,10.0,30.03,WSW,255,4.0,11.0,70,0.00,,,0.00,Wunderground v.1.15,2013-02-21 17:46:00,
2013-02-21 12:47:00,18.2,10.1,30.03,NW,313,8.0,11.0,70,0.00,,,0.00,Wunderground v.1.15,2013-02-21 17:47:00,
2013-02-21 12:50:00,18.4,9.9,30.03,WNW,288,8.0,11.0,69,0.00,,,0.00,Wunderground v.1.15,2013-02-21 17:50:00,
2013-02-21 12:51:00,18.2,9.7,30.03,WNW,292,4.0,11.0,69,0.00,,,0.00,Wunderground v.1.15,2013-02-21 17:51:00,
2013-02-21 12:53:00,18.2,9.7,30.03,SSW,193,4.0,11.0,69,0.00,,,0.00,Wunderground v.1.15,2013-02-21 17:53:00,
2013-02-21 12:54:00,18.2,9.7,30.03,WNW,284,6.0,11.0,69,0.00,,,0.00,Wunderground v.1.15,2013-02-21 17:54:00,
2013-02-21 12:55:00,18.0,9.5,30.03,West,278,4.0,11.0,69,0.00,,,0.00,Wunderground v.1.15,2013-02-21 17:55:00,
2013-02-21 12:57:00,18.0,9.5,30.03,SW,221,5.0,11.0,69,0.00,,,0.00,Wunderground v.1.15,2013-02-21 17:57:00,
2013-02-21 12:58:00,18.2,10.1,30.03,West,263,5.0,6.0,70,0.00,,,0.00,Wunderground v.1.15,2013-02-21 17:58:00,
2013-02-21 13:00:00,18.6,10.4,30.03,West,264,3.0,6.0,70,0.00,,,0.00,Wunderground v.1.15,2013-02-21 18:00:00,
2013-02-21 13:01:00,18.6,10.4,30.03,West,280,5.0,6.0,70,0.00,,,0.00,Wunderground v.1.15,2013-02-21 18:01:00,
2013-02-21 13:03:00,18.9,10.4,30.03,South,177,1.0,9.0,69,0.00,,,0.00,Wunderground v.1.15,2013-02-21 18:03:00,
2013-02-21 13:04:00,18.9,10.4,30.03,WNW,298,13.0,13.0,69,0.00,,,0.00,Wunderground v.1.15,2013-02-21 18:04:00,
2013-02-21 13:06:00,18.8,10.0,30.03,WNW,291,5.0,13.0,68,0.00,,,0.00,Wunderground v.1.15,2013-02-21 18:06:00,
2013-02-21 13:08:00,18.5,9.7,30.03,WNW,302,6.0,9.0,68,0.00,,,0.00,Wunderground v.1.15,2013-02-21 18:08:00,
2013-02-21 13:10:00,18.7,10.2,30.03,West,281,11.0,15.0,69,0.00,,,0.00,Wunderground v.1.15,2013-02-21 18:10:00,
2013-02-21 13:13:00,18.2,9.4,30.03,NW,309,6.0,15.0,68,0.00,,,0.00,Wunderground v.1.15,2013-02-21 18:13:00,
2013-02-21 13:14:00,18.1,9.6,30.03,WNW,290,6.0,15.0,69,0.00,,,0.00,Wunderground v.1.15,2013-02-21 18:14:00,
2013-02-21 13:15:00,18.0,9.5,30.04,West,269,3.0,15.0,69,0.00,,,0.00,Wunderground v.1.15,2013-02-21 18:15:00,
2013-02-21 13:18:00,17.8,9.3,30.03,WSW,254,3.0,9.0,69,0.00,,,0.00,Wunderground v.1.15,2013-02-21 18:18:00,
2013-02-21 13:19:00,17.8,9.3,30.03,NW,313,9.0,9.0,69,0.00,,,0.00,Wunderground v.1.15,2013-02-21 18:19:00,
2013-02-21 13:21:00,17.7,9.6,30.03,WNW,288,8.0,11.0,70,0.00,,,0.00,Wunderground v.1.15,2013-02-21 18:21:00,
2013-02-21 13:22:00,17.7,9.6,30.03,West,267,11.0,11.0,70,0.00,,,0.00,Wunderground v.1.15,2013-02-21 18:22:00,
2013-02-21 13:24:00,17.6,9.5,30.03,West,267,4.0,11.0,70,0.00,,,0.00,Wunderground v.1.15,2013-02-21 18:24:00,
2013-02-21 13:25:00,17.5,9.4,30.04,WSW,238,6.0,11.0,70,0.00,,,0.00,Wunderground v.1.15,2013-02-21 18:25:00,
2013-02-21 13:27:00,17.4,9.0,30.03,WNW,285,4.0,6.0,69,0.00,,,0.00,Wunderground v.1.15,2013-02-21 18:27:00,
2013-02-21 13:29:00,17.3,9.2,30.04,SW,214,8.0,15.0,70,0.00,,,0.00,Wunderground v.1.15,2013-02-21 18:29:00,
2013-02-21 13:31:00,17.2,8.8,30.04,West,271,14.0,15.0,69,0.00,,,0.00,Wunderground v.1.15,2013-02-21 18:31:00,
2013-02-21 13:33:00,17.4,9.3,30.04,SW,227,9.0,15.0,70,0.00,,,0.00,Wunderground v.1.15,2013-02-21 18:33:00,
2013-02-21 13:34:00,17.6,9.5,30.04,WSW,252,5.0,15.0,70,0.00,,,0.00,Wunderground v.1.15,2013-02-21 18:34:00,
2013-02-21 13:35:00,17.6,9.5,30.04,West,264,4.0,15.0,70,0.00,,,0.00,Wunderground v.1.15,2013-02-21 18:35:00,
2013-02-21 13:36:00,17.8,9.7,30.04,West,281,16.0,16.0,70,0.00,,,0.00,Wunderground v.1.15,2013-02-21 18:36:00,
2013-02-21 13:39:00,17.7,9.2,30.04,WNW,286,9.0,11.0,69,0.00,,,0.00,Wunderground v.1.15,2013-02-21 18:39:00,
2013-02-21 13:40:00,17.4,9.0,30.04,WNW,292,8.0,16.0,69,0.00,,,0.00,Wunderground v.1.15,2013-02-21 18:40:00,
2013-02-21 13:41:00,17.5,9.1,30.04,West,279,4.0,16.0,69,0.00,,,0.00,Wunderground v.1.15,2013-02-21 18:41:00,
2013-02-21 13:42:00,17.6,9.5,30.04,WNW,284,2.0,16.0,70,0.00,,,0.00,Wunderground v.1.15,2013-02-21 18:42:00,
2013-02-21 13:46:00,18.3,10.1,30.05,SW,216,2.0,16.0,70,0.00,,,0.00,Wunderground v.1.15,2013-02-21 18:46:00,
2013-02-21 13:47:00,18.4,10.2,30.04,West,261,5.0,16.0,70,0.00,,,0.00,Wunderground v.1.15,2013-02-21 18:47:00,
2013-02-21 13:48:00,18.4,10.2,30.05,WNW,286,7.0,10.0,70,0.00,,,0.00,Wunderground v.1.15,2013-02-21 18:48:00,
2013-02-21 13:52:00,18.4,9.9,30.05,West,277,4.0,13.0,69,0.00,,,0.00,Wunderground v.1.15,2013-02-21 18:52:00,
2013-02-21 13:54:00,18.6,10.1,30.05,SW,234,5.0,13.0,69,0.00,,,0.00,Wunderground v.1.15,2013-02-21 18:54:00,
2013-02-21 13:55:00,18.6,10.1,30.05,WSW,254,2.0,13.0,69,0.00,,,0.00,Wunderground v.1.15,2013-02-21 18:55:00,
2013-02-21 13:57:00,18.4,9.3,30.05,West,266,10.0,13.0,67,0.00,,,0.00,Wunderground v.1.15,2013-02-21 18:57:00,
2013-02-21 13:58:00,18.1,9.0,30.05,NW,326,7.0,7.0,67,0.00,,,0.00,Wunderground v.1.15,2013-02-21 18:58:00,
2013-02-21 14:00:00,17.9,9.1,30.05,West,266,4.0,7.0,68,0.00,,,0.00,Wunderground v.1.15,2013-02-21 19:00:00,
2013-02-21 14:03:00,17.8,9.3,30.05,WNW,283,9.0,10.0,69,0.00,,,0.00,Wunderground v.1.15,2013-02-21 19:03:00,
2013-02-21 14:04:00,17.7,9.2,30.05,WNW,288,5.0,10.0,69,0.00,,,0.00,Wunderground v.1.15,2013-02-21 19:04:00,
2013-02-21 14:05:00,17.8,9.7,30.05,NW,319,6.0,10.0,70,0.00,,,0.00,Wunderground v.1.15,2013-02-21 19:05:00,
2013-02-21 14:06:00,17.9,9.8,30.05,West,279,2.0,10.0,70,0.00,,,0.00,Wunderground v.1.15,2013-02-21 19:06:00,
2013-02-21 14:10:00,18.2,9.7,30.05,NW,305,7.0,11.0,69,0.00,,,0.00,Wunderground v.1.15,2013-02-21 19:10:00,
2013-02-21 14:11:00,18.1,9.6,30.05,WNW,297,8.0,11.0,69,0.00,,,0.00,Wunderground v.1.15,2013-02-21 19:11:00,
2013-02-21 14:15:00,17.8,9.3,30.05,South,176,2.0,13.0,69,0.00,,,0.00,Wunderground v.1.15,2013-02-21 19:15:00,
2013-02-21 14:16:00,17.8,9.3,30.05,WSW,254,9.0,13.0,69,0.00,,,0.00,Wunderground v.1.15,2013-02-21 19:16:00,
2013-02-21 14:21:00,18.4,10.2,30.05,NNW,336,5.0,8.0,70,0.00,,,0.00,Wunderground v.1.15,2013-02-21 19:21:00,
2013-02-21 14:22:00,18.5,10.0,30.06,NW,304,10.0,12.0,69,0.00,,,0.00,Wunderground v.1.15,2013-02-21 19:22:00,
2013-02-21 14:24:00,18.3,9.8,30.06,SW,229,6.0,12.0,69,0.00,,,0.00,Wunderground v.1.15,2013-02-21 19:24:00,
2013-02-21 14:26:00,18.1,9.6,30.06,WNW,297,9.0,12.0,69,0.00,,,0.00,Wunderground v.1.15,2013-02-21 19:26:00,
2013-02-21 14:27:00,17.9,9.1,30.06,West,263,5.0,12.0,68,0.00,,,0.00,Wunderground v.1.15,2013-02-21 19:27:00,
2013-02-21 14:29:00,17.7,9.2,30.06,NW,308,7.0,10.0,69,0.00,,,0.00,Wunderground v.1.15,2013-02-21 19:29:00,
2013-02-21 14:31:00,17.9,9.8,30.06,WNW,303,7.0,10.0,70,0.00,,,0.00,Wunderground v.1.15,2013-02-21 19:31:00,
2013-02-21 14:32:00,17.9,9.4,30.06,WNW,290,4.0,10.0,69,0.00,,,0.00,Wunderground v.1.15,2013-02-21 19:32:00,
2013-02-21 14:33:00,17.9,9.4,30.06,WNW,286,6.0,10.0,69,0.00,,,0.00,Wunderground v.1.15,2013-02-21 19:33:00,
2013-02-21 14:34:00,18.0,9.5,30.06,NNW,333,3.0,10.0,69,0.00,,,0.00,Wunderground v.1.15,2013-02-21 19:34:00,
2013-02-21 14:37:00,18.1,9.6,30.06,North,360,4.0,10.0,69,0.00,,,0.00,Wunderground v.1.15,2013-02-21 19:37:00,
2013-02-21 14:40:00,18.2,9.7,30.06,West,270,4.0,12.0,69,0.00,,,0.00,Wunderground v.1.15,2013-02-21 19:40:00,
2013-02-21 14:42:00,18.1,9.3,30.06,WNW,287,7.0,12.0,68,0.00,,,0.00,Wunderground v.1.15,2013-02-21 19:42:00,
2013-02-21 14:43:00,18.1,9.3,30.06,WNW,287,7.0,12.0,68,0.00,,,0.00,Wunderground v.1.15,2013-02-21 19:43:00,
2013-02-21 14:45:00,17.8,9.3,30.06,NW,309,11.0,12.0,69,0.00,,,0.00,Wunderground v.1.15,2013-02-21 19:45:00,
2013-02-21 14:46:00,17.8,9.3,30.06,West,273,3.0,12.0,69,0.00,,,0.00,Wunderground v.1.15,2013-02-21 19:46:00,
2013-02-21 14:47:00,17.7,9.2,30.06,West,278,6.0,12.0,69,0.00,,,0.00,Wunderground v.1.15,2013-02-21 19:47:00,
2013-02-21 14:50:00,17.9,9.4,30.06,WSW,250,7.0,7.0,69,0.00,,,0.00,Wunderground v.1.15,2013-02-21 19:50:00,
2013-02-21 14:51:00,18.1,9.6,30.06,WSW,254,6.0,7.0,69,0.00,,,0.00,Wunderground v.1.15,2013-02-21 19:51:00,
2013-02-21 14:54:00,18.2,9.7,30.07,WNW,285,7.0,13.0,69,0.00,,,0.00,Wunderground v.1.15,2013-02-21 19:54:00,
2013-02-21 14:55:00,18.0,9.2,30.07,WNW,299,6.0,13.0,68,0.00,,,0.00,Wunderground v.1.15,2013-02-21 19:55:00,
2013-02-21 14:56:00,18.0,9.5,30.07,WSW,240,6.0,13.0,69,0.00,,,0.00,Wunderground v.1.15,2013-02-21 19:56:00,
2013-02-21 14:59:00,18.0,9.5,30.07,West,278,4.0,11.0,69,0.00,,,0.00,Wunderground v.1.15,2013-02-21 19:59:00,
2013-02-21 15:00:00,18.0,9.5,30.07,West,276,10.0,11.0,69,0.00,,,0.00,Wunderground v.1.15,2013-02-21 20:00:00,
2013-02-21 15:01:00,18.0,9.5,30.07,West,271,7.0,11.0,69,0.00,,,0.00,Wunderground v.1.15,2013-02-21 20:01:00,
2013-02-21 15:05:00,17.9,9.4,30.07,WSW,242,10.0,13.0,69,0.00,,,0.00,Wunderground v.1.15,2013-02-21 20:05:00,
2013-02-21 15:06:00,18.0,9.5,30.07,West,269,6.0,13.0,69,0.00,,,0.00,Wunderground v.1.15,2013-02-21 20:06:00,
2013-02-21 15:07:00,18.0,9.5,30.07,West,274,3.0,13.0,69,0.00,,,0.00,Wunderground v.1.15,2013-02-21 20:07:00,
2013-02-21 15:08:00,18.1,9.6,30.07,NW,321,1.0,6.0,69,0.00,,,0.00,Wunderground v.1.15,2013-02-21 20:08:00,
2013-02-21 15:12:00,18.3,9.5,30.08,WNW,287,6.0,9.0,68,0.00,,,0.00,Wunderground v.1.15,2013-02-21 20:12:00,
2013-02-21 15:13:00,18.2,9.4,30.08,SW,233,2.0,9.0,68,0.00,,,0.00,Wunderground v.1.15,2013-02-21 20:13:00,
2013-02-21 15:14:00,18.2,9.4,30.08,NW,312,2.0,9.0,68,0.00,,,0.00,Wunderground v.1.15,2013-02-21 20:14:00,
2013-02-21 15:17:00,18.5,10.0,30.08,WNW,300,7.0,7.0,69,0.00,,,0.00,Wunderground v.1.15,2013-02-21 20:17:00,
2013-02-21 15:18:00,18.5,10.0,30.08,West,269,1.0,7.0,69,0.00,,,0.00,Wunderground v.1.15,2013-02-21 20:18:00,
2013-02-21 15:19:00,18.6,10.1,30.08,WNW,285,7.0,7.0,69,0.00,,,0.00,Wunderground v.1.15,2013-02-21 20:19:00,
2013-02-21 15:20:00,18.6,10.1,30.08,WNW,290,4.0,10.0,69,0.00,,,0.00,Wunderground v.1.15,2013-02-21 20:20:00,
2013-02-21 15:23:00,18.6,9.8,30.09,WNW,287,3.0,10.0,68,0.00,,,0.00,Wunderground v.1.15,2013-02-21 20:23:00,
2013-02-21 15:24:00,18.6,9.8,30.09,WNW,299,9.0,10.0,68,0.00,,,0.00,Wunderground v.1.15,2013-02-21 20:24:00,
2013-02-21 15:25:00,18.5,9.7,30.09,WSW,242,3.0,10.0,68,0.00,,,0.00,Wunderground v.1.15,2013-02-21 20:25:00,
2013-02-21 15:28:00,18.3,9.5,30.09,WNW,294,7.0,9.0,68,0.00,,,0.00,Wunderground v.1.15,2013-02-21 20:28:00,
2013-02-21 15:29:00,18.2,9.4,30.09,WNW,294,5.0,9.0,68,0.00,,,0.00,Wunderground v.1.15,2013-02-21 20:29:00,
2013-02-21 15:30:00,18.2,9.4,30.09,WNW,291,3.0,9.0,68,0.00,,,0.00,Wunderground v.1.15,2013-02-21 20:30:00,
2013-02-21 15:33:00,18.2,9.4,30.09,West,265,10.0,10.0,68,0.00,,,0.00,Wunderground v.1.15,2013-02-21 20:33:00,
2013-02-21 15:35:00,18.2,9.4,30.09,WNW,290,2.0,10.0,68,0.00,,,0.00,Wunderground v.1.15,2013-02-21 20:35:00,
2013-02-21 15:39:00,18.5,10.0,30.09,NW,314,1.0,6.0,69,0.00,,,0.00,Wunderground v.1.15,2013-02-21 20:39:00,
2013-02-21 15:41:00,18.7,10.2,30.09,WSW,249,4.0,6.0,69,0.00,,,0.00,Wunderground v.1.15,2013-02-21 20:41:00,
2013-02-21 15:43:00,18.6,9.8,30.09,West,269,2.0,10.0,68,0.00,,,0.00,Wunderground v.1.15,2013-02-21 20:43:00,
2013-02-21 15:44:00,18.7,9.9,30.10,NNW,329,1.0,10.0,68,0.00,,,0.00,Wunderground v.1.15,2013-02-21 20:44:00,
2013-02-21 15:46:00,18.8,10.0,30.10,NNW,329,3.0,10.0,68,0.00,,,0.00,Wunderground v.1.15,2013-02-21 20:46:00,
2013-02-21 15:47:00,18.8,10.0,30.10,West,277,1.0,10.0,68,0.00,,,0.00,Wunderground v.1.15,2013-02-21 20:47:00,
2013-02-21 15:48:00,18.9,10.1,30.10,West,273,4.0,4.0,68,0.00,,,0.00,Wunderground v.1.15,2013-02-21 20:48:00,
2013-02-21 15:51:00,18.8,10.3,30.11,West,279,2.0,5.0,69,0.00,,,0.00,Wunderground v.1.15,2013-02-21 20:51:00,
2013-02-21 15:53:00,18.9,10.4,30.10,West,270,3.0,5.0,69,0.00,,,0.00,Wunderground v.1.15,2013-02-21 20:53:00,
2013-02-21 15:54:00,18.8,10.3,30.10,WSW,246,5.0,5.0,69,0.00,,,0.00,Wunderground v.1.15,2013-02-21 20:54:00,
2013-02-21 15:56:00,18.6,9.8,30.11,NW,320,3.0,5.0,68,0.00,,,0.00,Wunderground v.1.15,2013-02-21 20:56:00,
2013-02-21 15:59:00,18.5,10.0,30.11,NNE,28,5.0,5.0,69,0.00,,,0.00,Wunderground v.1.15,2013-02-21 20:59:00,
2013-02-21 16:00:00,18.5,10.0,30.11,NNW,333,3.0,8.0,69,0.00,,,0.00,Wunderground v.1.15,2013-02-21 21:00:00,
2013-02-21 16:03:00,18.2,9.7,30.11,WNW,296,3.0,8.0,69,0.00,,,0.00,Wunderground v.1.15,2013-02-21 21:03:00,
2013-02-21 16:04:00,18.2,10.1,30.11,West,276,5.0,8.0,70,0.00,,,0.00,Wunderground v.1.15,2013-02-21 21:04:00,
2013-02-21 16:05:00,18.2,10.1,30.12,WNW,284,6.0,8.0,70,0.00,,,0.00,Wunderground v.1.15,2013-02-21 21:05:00,
2013-02-21 16:06:00,18.2,10.1,30.12,West,277,4.0,8.0,70,0.00,,,0.00,Wunderground v.1.15,2013-02-21 21:06:00,
2013-02-21 16:08:00,18.1,10.0,30.12,WNW,293,6.0,6.0,70,0.00,,,0.00,Wunderground v.1.15,2013-02-21 21:08:00,
2013-02-21 16:10:00,18.0,9.9,30.12,NNW,339,7.0,8.0,70,0.00,,,0.00,Wunderground v.1.15,2013-02-21 21:10:00,
2013-02-21 16:11:00,18.0,9.9,30.12,NW,314,3.0,8.0,70,0.00,,,0.00,Wunderground v.1.15,2013-02-21 21:11:00,
2013-02-21 16:14:00,17.5,9.4,30.12,WSW,245,5.0,8.0,70,0.00,,,0.00,Wunderground v.1.15,2013-02-21 21:14:00,
2013-02-21 16:16:00,17.4,9.3,30.12,WSW,254,2.0,8.0,70,0.00,,,0.00,Wunderground v.1.15,2013-02-21 21:16:00,
2013-02-21 16:22:00,17.5,9.7,30.12,South,178,1.0,9.0,71,0.00,,,0.00,Wunderground v.1.15,2013-02-21 21:22:00,
2013-02-21 16:25:00,17.5,9.7,30.13,WNW,289,2.0,9.0,71,0.00,,,0.00,Wunderground v.1.15,2013-02-21 21:25:00,
2013-02-21 16:27:00,17.6,9.8,30.13,West,259,1.0,4.0,71,0.00,,,0.00,Wunderground v.1.15,2013-02-21 21:27:00,
2013-02-21 16:28:00,17.6,9.8,30.13,West,270,1.0,4.0,71,0.00,,,0.00,Wunderground v.1.15,2013-02-21 21:28:00,
2013-02-21 16:29:00,17.6,10.1,30.13,West,281,0.0,4.0,72,0.00,,,0.00,Wunderground v.1.15,2013-02-21 21:29:00,
2013-02-21 16:31:00,17.7,10.2,30.13,West,272,3.0,4.0,72,0.00,,,0.00,Wunderground v.1.15,2013-02-21 21:31:00,
2013-02-21 16:33:00,17.7,10.2,30.13,NW,306,6.0,6.0,72,0.00,,,0.00,Wunderground v.1.15,2013-02-21 21:33:00,
2013-02-21 16:35:00,17.6,9.8,30.13,WNW,284,6.0,11.0,71,0.00,,,0.00,Wunderground v.1.15,2013-02-21 21:35:00,
2013-02-21 16:37:00,17.4,9.6,30.14,West,265,1.0,11.0,71,0.00,,,0.00,Wunderground v.1.15,2013-02-21 21:37:00,
2013-02-21 16:38:00,17.3,9.5,30.14,NW,308,2.0,11.0,71,0.00,,,0.00,Wunderground v.1.15,2013-02-21 21:38:00,
2013-02-21 16:41:00,17.3,9.8,30.14,West,263,3.0,11.0,72,0.00,,,0.00,Wunderground v.1.15,2013-02-21 21:41:00,
2013-02-21 16:43:00,17.4,9.9,30.14,WNW,284,4.0,11.0,72,0.00,,,0.00,Wunderground v.1.15,2013-02-21 21:43:00,
2013-02-21 16:44:00,17.4,9.9,30.14,WNW,291,3.0,11.0,72,0.00,,,0.00,Wunderground v.1.15,2013-02-21 21:44:00,
2013-02-21 16:45:00,17.4,9.9,30.14,WNW,303,1.0,11.0,72,0.00,,,0.00,Wunderground v.1.15,2013-02-21 21:45:00,
2013-02-21 16:46:00,17.4,9.9,30.14,West,260,4.0,11.0,72,0.00,,,0.00,Wunderground v.1.15,2013-02-21 21:46:00,
2013-02-21 16:49:00,17.4,9.9,30.14,WNW,300,1.0,4.0,72,0.00,,,0.00,Wunderground v.1.15,2013-02-21 21:49:00,
2013-02-21 16:52:00,17.3,9.8,30.15,WNW,296,5.0,11.0,72,0.00,,,0.00,Wunderground v.1.15,2013-02-21 21:52:00,
2013-02-21 16:53:00,17.3,9.8,30.15,WNW,300,3.0,11.0,72,0.00,,,0.00,Wunderground v.1.15,2013-02-21 21:53:00,
2013-02-21 16:54:00,17.3,9.8,30.15,WSW,252,0.0,11.0,72,0.00,,,0.00,Wunderground v.1.15,2013-02-21 21:54:00,
2013-02-21 16:57:00,17.4,9.9,30.15,West,266,0.0,11.0,72,0.00,,,0.00,Wunderground v.1.15,2013-02-21 21:57:00,
2013-02-21 16:58:00,17.4,9.9,30.15,WNW,291,2.0,6.0,72,0.00,,,0.00,Wunderground v.1.15,2013-02-21 21:58:00,
2013-02-21 16:59:00,17.3,9.8,30.15,West,279,4.0,6.0,72,0.00,,,0.00,Wunderground v.1.15,2013-02-21 21:59:00,
2013-02-21 17:02:00,17.3,10.1,30.16,NW,314,3.0,6.0,73,0.00,,,0.00,Wunderground v.1.15,2013-02-21 22:02:00,
2013-02-21 17:05:00,17.3,10.1,30.16,WNW,286,2.0,6.0,73,0.00,,,0.00,Wunderground v.1.15,2013-02-21 22:05:00,
2013-02-21 17:10:00,17.1,9.9,30.16,WSW,247,2.0,5.0,73,0.00,,,0.00,Wunderground v.1.15,2013-02-21 22:10:00,
2013-02-21 17:11:00,17.1,9.9,30.16,West,280,4.0,6.0,73,0.00,,,0.00,Wunderground v.1.15,2013-02-21 22:11:00,
2013-02-21 17:13:00,17.0,9.8,30.16,West,264,2.0,9.0,73,0.00,,,0.00,Wunderground v.1.15,2013-02-21 22:13:00,
2013-02-21 17:15:00,17.0,9.8,30.16,West,275,5.0,9.0,73,0.00,,,0.00,Wunderground v.1.15,2013-02-21 22:15:00,
2013-02-21 17:17:00,17.0,9.8,30.17,NW,304,1.0,9.0,73,0.00,,,0.00,Wunderground v.1.15,2013-02-21 22:17:00,
2013-02-21 17:19:00,16.9,9.7,30.17,West,275,3.0,4.0,73,0.00,,,0.00,Wunderground v.1.15,2013-02-21 22:19:00,
2013-02-21 17:21:00,16.9,9.7,30.16,NW,313,1.0,4.0,73,0.00,,,0.00,Wunderground v.1.15,2013-02-21 22:21:00,
2013-02-21 17:22:00,16.9,10.0,30.17,NNW,338,0.0,4.0,74,0.00,,,0.00,Wunderground v.1.15,2013-02-21 22:22:00,
2013-02-21 17:25:00,17.0,10.1,30.17,West,281,1.0,5.0,74,0.00,,,0.00,Wunderground v.1.15,2013-02-21 22:25:00,
2013-02-21 17:26:00,17.0,10.1,30.17,WNW,286,1.0,5.0,74,0.00,,,0.00,Wunderground v.1.15,2013-02-21 22:26:00,
2013-02-21 17:27:00,17.0,10.1,30.17,WNW,292,0.0,2.0,74,0.00,,,0.00,Wunderground v.1.15,2013-02-21 22:27:00,
2013-02-21 17:28:00,17.0,10.1,30.17,WNW,285,2.0,2.0,74,0.00,,,0.00,Wunderground v.1.15,2013-02-21 22:28:00,
2013-02-21 17:30:00,17.0,10.1,30.17,WNW,292,1.0,5.0,74,0.00,,,0.00,Wunderground v.1.15,2013-02-21 22:30:00,
2013-02-21 17:33:00,17.0,10.1,30.17,WNW,292,2.0,5.0,74,0.00,,,0.00,Wunderground v.1.15,2013-02-21 22:33:00,
2013-02-21 17:34:00,17.0,10.1,30.17,North,10,3.0,5.0,74,0.00,,,0.00,Wunderground v.1.15,2013-02-21 22:34:00,
2013-02-21 17:36:00,17.0,10.1,30.17,West,268,2.0,5.0,74,0.00,,,0.00,Wunderground v.1.15,2013-02-21 22:36:00,
2013-02-21 17:38:00,17.0,10.1,30.18,NW,325,0.0,2.0,74,0.00,,,0.00,Wunderground v.1.15,2013-02-21 22:38:00,
2013-02-21 17:40:00,17.0,10.1,30.18,NW,304,1.0,3.0,74,0.00,,,0.00,Wunderground v.1.15,2013-02-21 22:40:00,
2013-02-21 17:42:00,17.0,10.1,30.18,WNW,292,1.0,4.0,74,0.00,,,0.00,Wunderground v.1.15,2013-02-21 22:42:00,
2013-02-21 17:44:00,17.0,10.1,30.18,West,272,6.0,6.0,74,0.00,,,0.00,Wunderground v.1.15,2013-02-21 22:44:00,
2013-02-21 17:45:00,17.0,10.1,30.18,WNW,290,1.0,6.0,74,0.00,,,0.00,Wunderground v.1.15,2013-02-21 22:45:00,
2013-02-21 17:46:00,17.0,10.1,30.19,WNW,296,0.0,6.0,74,0.00,,,0.00,Wunderground v.1.15,2013-02-21 22:46:00,
2013-02-21 17:47:00,17.1,10.2,30.18,NW,312,0.0,6.0,74,0.00,,,0.00,Wunderground v.1.15,2013-02-21 22:47:00,
2013-02-21 17:49:00,17.1,10.5,30.19,SW,232,1.0,4.0,75,0.00,,,0.00,Wunderground v.1.15,2013-02-21 22:49:00,
2013-02-21 17:52:00,17.1,10.5,30.19,WNW,288,1.0,4.0,75,0.00,,,0.00,Wunderground v.1.15,2013-02-21 22:52:00,
2013-02-21 17:53:00,17.1,10.5,30.19,SSW,213,3.0,4.0,75,0.00,,,0.00,Wunderground v.1.15,2013-02-21 22:53:00,
2013-02-21 17:54:00,17.1,10.5,30.19,NNE,28,0.0,4.0,75,0.00,,,0.00,Wunderground v.1.15,2013-02-21 22:54:00,
2013-02-21 17:57:00,17.1,10.5,30.19,WNW,294,3.0,3.0,75,0.00,,,0.00,Wunderground v.1.15,2013-02-21 22:57:00,
2013-02-21 17:58:00,17.1,10.5,30.19,West,275,2.0,4.0,75,0.00,,,0.00,Wunderground v.1.15,2013-02-21 22:58:00,
2013-02-21 18:01:00,17.1,10.5,30.19,West,265,2.0,5.0,75,0.00,,,0.00,Wunderground v.1.15,2013-02-21 23:01:00,
2013-02-21 18:02:00,17.1,10.5,30.20,West,261,2.0,5.0,75,0.00,,,0.00,Wunderground v.1.15,2013-02-21 23:02:00,
2013-02-21 18:03:00,17.0,10.4,30.20,West,259,0.0,5.0,75,0.00,,,0.00,Wunderground v.1.15,2013-02-21 23:03:00,
2013-02-21 18:06:00,17.0,10.4,30.20,WNW,295,3.0,5.0,75,0.00,,,0.00,Wunderground v.1.15,2013-02-21 23:06:00,
2013-02-21 18:08:00,17.0,10.7,30.20,ENE,58,0.0,4.0,76,0.00,,,0.00,Wunderground v.1.15,2013-02-21 23:08:00,
2013-02-21 18:09:00,17.0,10.4,30.20,West,281,3.0,4.0,75,0.00,,,0.00,Wunderground v.1.15,2013-02-21 23:09:00,
2013-02-21 18:10:00,17.0,10.4,30.20,West,281,1.0,4.0,75,0.00,,,0.00,Wunderground v.1.15,2013-02-21 23:10:00,
2013-02-21 18:14:00,17.0,10.7,30.20,WNW,284,4.0,4.0,76,0.00,,,0.00,Wunderground v.1.15,2013-02-21 23:14:00,
2013-02-21 18:15:00,17.1,10.8,30.20,WNW,292,1.0,4.0,76,0.00,,,0.00,Wunderground v.1.15,2013-02-21 23:15:00,
2013-02-21 18:19:00,17.0,10.7,30.20,WNW,296,1.0,1.0,76,0.00,,,0.00,Wunderground v.1.15,2013-02-21 23:19:00,
2013-02-21 18:20:00,17.0,10.7,30.20,WNW,299,0.0,2.0,76,0.00,,,0.00,Wunderground v.1.15,2013-02-21 23:20:00,
2013-02-21 18:21:00,17.0,10.7,30.21,WNW,299,0.0,2.0,76,0.00,,,0.00,Wunderground v.1.15,2013-02-21 23:21:00,
2013-02-21 18:25:00,17.1,11.1,30.21,WNW,299,0.0,2.0,77,0.00,,,0.00,Wunderground v.1.15,2013-02-21 23:25:00,
2013-02-21 18:26:00,17.1,11.1,30.21,West,279,4.0,4.0,77,0.00,,,0.00,Wunderground v.1.15,2013-02-21 23:26:00,
2013-02-21 18:28:00,17.1,10.8,30.21,WNW,300,3.0,3.0,76,0.00,,,0.00,Wunderground v.1.15,2013-02-21 23:28:00,
2013-02-21 18:29:00,17.0,10.7,30.21,WNW,282,5.0,5.0,76,0.00,,,0.00,Wunderground v.1.15,2013-02-21 23:29:00,
2013-02-21 18:32:00,16.9,10.6,30.21,WSW,252,2.0,7.0,76,0.00,,,0.00,Wunderground v.1.15,2013-02-21 23:32:00,
2013-02-21 18:33:00,17.0,10.7,30.21,North,5,0.0,7.0,76,0.00,,,0.00,Wunderground v.1.15,2013-02-21 23:33:00,
2013-02-21 18:34:00,17.0,10.7,30.21,North,5,0.0,7.0,76,0.00,,,0.00,Wunderground v.1.15,2013-02-21 23:34:00,
2013-02-21 18:37:00,16.9,10.6,30.21,NW,311,9.0,9.0,76,0.00,,,0.00,Wunderground v.1.15,2013-02-21 23:37:00,
2013-02-21 18:38:00,16.9,10.6,30.21,WNW,289,3.0,4.0,76,0.00,,,0.00,Wunderground v.1.15,2013-02-21 23:38:00,
2013-02-21 18:39:00,16.9,10.6,30.21,WNW,286,2.0,4.0,76,0.00,,,0.00,Wunderground v.1.15,2013-02-21 23:39:00,
2013-02-21 18:42:00,16.8,10.8,30.22,WSW,249,1.0,4.0,77,0.00,,,0.00,Wunderground v.1.15,2013-02-21 23:42:00,
2013-02-21 18:44:00,16.8,10.5,30.22,WNW,288,1.0,4.0,76,0.00,,,0.00,Wunderground v.1.15,2013-02-21 23:44:00,
2013-02-21 18:45:00,16.8,10.5,30.22,WNW,288,0.0,4.0,76,0.00,,,0.00,Wunderground v.1.15,2013-02-21 23:45:00,
2013-02-21 18:46:00,16.8,10.5,30.22,WNW,288,0.0,4.0,76,0.00,,,0.00,Wunderground v.1.15,2013-02-21 23:46:00,
2013-02-21 18:49:00,16.8,10.8,30.22,West,276,1.0,4.0,77,0.00,,,0.00,Wunderground v.1.15,2013-02-21 23:49:00,
2013-02-21 18:50:00,16.8,10.8,30.22,West,281,3.0,4.0,77,0.00,,,0.00,Wunderground v.1.15,2013-02-21 23:50:00,
2013-02-21 18:51:00,16.8,10.8,30.22,WSW,254,10.0,10.0,77,0.00,,,0.00,Wunderground v.1.15,2013-02-21 23:51:00,
2013-02-21 18:52:00,16.7,10.4,30.22,WNW,284,2.0,10.0,76,0.00,,,0.00,Wunderground v.1.15,2013-02-21 23:52:00,
2013-02-21 18:55:00,16.7,10.7,30.22,NW,309,3.0,10.0,77,0.00,,,0.00,Wunderground v.1.15,2013-02-21 23:55:00,
2013-02-21 18:58:00,16.7,10.7,30.22,West,268,3.0,3.0,77,0.00,,,0.00,Wunderground v.1.15,2013-02-21 23:58:00,
2013-02-21 18:59:00,16.6,10.6,30.22,WNW,286,0.0,4.0,77,0.00,,,0.00,Wunderground v.1.15,2013-02-21 23:59:00,
2013-02-21 19:01:00,16.6,10.6,30.22,WNW,286,0.0,4.0,77,0.00,,,0.00,Wunderground v.1.15,2013-02-22 00:01:00,
2013-02-21 19:03:00,16.6,10.6,30.22,NW,306,0.0,4.0,77,0.00,,,0.00,Wunderground v.1.15,2013-02-22 00:03:00,
2013-02-21 19:05:00,16.6,10.6,30.22,NW,321,0.0,4.0,77,0.00,,,0.00,Wunderground v.1.15,2013-02-22 00:05:00,
2013-02-21 19:06:00,16.6,10.6,30.23,WSW,257,2.0,4.0,77,0.00,,,0.00,Wunderground v.1.15,2013-02-22 00:06:00,
2013-02-21 19:08:00,16.6,10.6,30.23,West,281,0.0,1.0,77,0.00,,,0.00,Wunderground v.1.15,2013-02-22 00:08:00,
2013-02-21 19:10:00,16.6,10.9,30.23,NW,309,0.0,2.0,78,0.00,,,0.00,Wunderground v.1.15,2013-02-22 00:10:00,
2013-02-21 19:11:00,16.6,10.9,30.23,NW,309,0.0,2.0,78,0.00,,,0.00,Wunderground v.1.15,2013-02-22 00:11:00,
2013-02-21 19:13:00,16.6,10.9,30.23,NW,310,0.0,2.0,78,0.00,,,0.00,Wunderground v.1.15,2013-02-22 00:13:00,
2013-02-21 19:14:00,16.6,10.9,30.23,NW,304,1.0,2.0,78,0.00,,,0.00,Wunderground v.1.15,2013-02-22 00:14:00,
2013-02-21 19:16:00,16.6,10.9,30.23,NW,312,0.0,2.0,78,0.00,,,0.00,Wunderground v.1.15,2013-02-22 00:16:00,
2013-02-21 19:17:00,16.6,10.9,30.22,WNW,283,2.0,3.0,78,0.00,,,0.00,Wunderground v.1.15,2013-02-22 00:17:00,
2013-02-21 19:19:00,16.6,10.9,30.22,WNW,286,0.0,3.0,78,0.00,,,0.00,Wunderground v.1.15,2013-02-22 00:19:00,
2013-02-21 19:21:00,16.6,10.9,30.23,WNW,297,3.0,3.0,78,0.00,,,0.00,Wunderground v.1.15,2013-02-22 00:21:00,
2013-02-21 19:23:00,16.6,10.9,30.23,West,267,1.0,4.0,78,0.00,,,0.00,Wunderground v.1.15,2013-02-22 00:23:00,
2013-02-21 19:25:00,16.6,10.9,30.23,North,355,0.0,4.0,78,0.00,,,0.00,Wunderground v.1.15,2013-02-22 00:25:00,
2013-02-21 19:27:00,16.6,10.9,30.23,West,264,0.0,1.0,78,0.00,,,0.00,Wunderground v.1.15,2013-02-22 00:27:00,
2013-02-21 19:28:00,16.6,11.2,30.23,NW,324,0.0,1.0,79,0.00,,,0.00,Wunderground v.1.15,2013-02-22 00:28:00,
2013-02-21 19:29:00,16.6,11.2,30.23,NW,324,0.0,1.0,79,0.00,,,0.00,Wunderground v.1.15,2013-02-22 00:29:00,
2013-02-21 19:30:00,16.6,11.2,30.23,West,266,1.0,3.0,79,0.00,,,0.00,Wunderground v.1.15,2013-02-22 00:30:00,
2013-02-21 19:33:00,16.5,11.1,30.24,North,355,2.0,3.0,79,0.00,,,0.00,Wunderground v.1.15,2013-02-22 00:33:00,
2013-02-21 19:34:00,16.5,11.1,30.24,NW,306,0.0,3.0,79,0.00,,,0.00,Wunderground v.1.15,2013-02-22 00:34:00,
2013-02-21 19:35:00,16.5,11.1,30.24,NW,306,0.0,3.0,79,0.00,,,0.00,Wunderground v.1.15,2013-02-22 00:35:00,
2013-02-21 19:36:00,16.5,11.1,30.24,NW,304,1.0,3.0,79,0.00,,,0.00,Wunderground v.1.15,2013-02-22 00:36:00,
2013-02-21 19:38:00,16.5,11.1,30.23,WNW,289,0.0,1.0,79,0.00,,,0.00,Wunderground v.1.15,2013-02-22 00:38:00,
2013-02-21 19:40:00,16.5,11.1,30.23,WNW,289,0.0,1.0,79,0.00,,,0.00,Wunderground v.1.15,2013-02-22 00:40:00,
2013-02-21 19:42:00,16.4,11.0,30.23,WNW,289,0.0,1.0,79,0.00,,,0.00,Wunderground v.1.15,2013-02-22 00:42:00,
2013-02-21 19:43:00,16.4,11.0,30.23,WNW,289,0.0,1.0,79,0.00,,,0.00,Wunderground v.1.15,2013-02-22 00:43:00,
2013-02-21 19:46:00,16.4,11.0,30.23,WNW,290,1.0,1.0,79,0.00,,,0.00,Wunderground v.1.15,2013-02-22 00:46:00,
2013-02-21 19:48:00,16.4,11.0,30.24,WNW,290,0.0,0.0,79,0.00,,,0.00,Wunderground v.1.15,2013-02-22 00:48:00,
2013-02-21 19:49:00,16.4,11.0,30.24,WNW,290,0.0,0.0,79,0.00,,,0.00,Wunderground v.1.15,2013-02-22 00:49:00,
2013-02-21 19:51:00,16.4,11.0,30.24,WNW,290,2.0,2.0,79,0.00,,,0.00,Wunderground v.1.15,2013-02-22 00:51:00,
2013-02-21 19:54:00,16.4,11.0,30.24,WNW,293,1.0,5.0,79,0.00,,,0.00,Wunderground v.1.15,2013-02-22 00:54:00,
2013-02-21 19:55:00,16.4,11.0,30.24,WNW,293,1.0,5.0,79,0.00,,,0.00,Wunderground v.1.15,2013-02-22 00:55:00,
2013-02-21 19:59:00,16.4,11.0,30.24,West,279,0.0,1.0,79,0.00,,,0.00,Wunderground v.1.15,2013-02-22 00:59:00,
2013-02-21 20:00:00,16.4,11.0,30.24,West,279,0.0,1.0,79,0.00,,,0.00,Wunderground v.1.15,2013-02-22 01:00:00,
2013-02-21 20:05:00,16.4,11.0,30.25,WSW,238,1.0,2.0,79,0.00,,,0.00,Wunderground v.1.15,2013-02-22 01:05:00,
2013-02-21 20:07:00,16.4,11.0,30.25,WNW,293,0.0,2.0,79,0.00,,,0.00,Wunderground v.1.15,2013-02-22 01:07:00,
2013-02-21 20:10:00,16.4,11.0,30.25,WNW,293,0.0,0.0,79,0.00,,,0.00,Wunderground v.1.15,2013-02-22 01:10:00,
2013-02-21 20:11:00,16.4,11.0,30.25,WNW,293,2.0,2.0,79,0.00,,,0.00,Wunderground v.1.15,2013-02-22 01:11:00,
2013-02-21 20:12:00,16.5,11.1,30.25,WNW,293,0.0,2.0,79,0.00,,,0.00,Wunderground v.1.15,2013-02-22 01:12:00,
2013-02-21 20:15:00,16.5,11.4,30.25,WNW,293,1.0,2.0,80,0.00,,,0.00,Wunderground v.1.15,2013-02-22 01:15:00,
2013-02-21 20:16:00,16.5,11.4,30.25,WNW,293,0.0,2.0,80,0.00,,,0.00,Wunderground v.1.15,2013-02-22 01:16:00,
2013-02-21 20:17:00,16.6,11.2,30.26,WNW,293,1.0,2.0,79,0.00,,,0.00,Wunderground v.1.15,2013-02-22 01:17:00,
2013-02-21 20:20:00,16.6,11.5,30.26,West,264,2.0,2.0,80,0.00,,,0.00,Wunderground v.1.15,2013-02-22 01:20:00,
2013-02-21 20:22:00,16.6,11.2,30.26,West,280,1.0,2.0,79,0.00,,,0.00,Wunderground v.1.15,2013-02-22 01:22:00,
2013-02-21 20:23:00,16.6,11.2,30.27,West,272,1.0,2.0,79,0.00,,,0.00,Wunderground v.1.15,2013-02-22 01:23:00,
2013-02-21 20:26:00,16.6,11.2,30.27,West,275,1.0,3.0,79,0.00,,,0.00,Wunderground v.1.15,2013-02-22 01:26:00,
2013-02-21 20:28:00,16.6,11.2,30.28,WNW,298,0.0,1.0,79,0.00,,,0.00,Wunderground v.1.15,2013-02-22 01:28:00,
2013-02-21 20:29:00,16.6,11.2,30.28,West,271,3.0,3.0,79,0.00,,,0.00,Wunderground v.1.15,2013-02-22 01:29:00,
2013-02-21 20:30:00,16.6,11.2,30.28,WNW,282,0.0,3.0,79,0.00,,,0.00,Wunderground v.1.15,2013-02-22 01:30:00,
2013-02-21 20:31:00,16.6,11.2,30.28,West,273,2.0,3.0,79,0.00,,,0.00,Wunderground v.1.15,2013-02-22 01:31:00,
2013-02-21 20:34:00,16.6,11.2,30.29,NNW,336,0.0,3.0,79,0.00,,,0.00,Wunderground v.1.15,2013-02-22 01:34:00,
2013-02-21 20:36:00,16.7,11.3,30.28,WSW,257,0.0,3.0,79,0.00,,,0.00,Wunderground v.1.15,2013-02-22 01:36:00,
2013-02-21 20:37:00,16.7,11.3,30.28,West,280,0.0,3.0,79,0.00,,,0.00,Wunderground v.1.15,2013-02-22 01:37:00,
2013-02-21 20:39:00,16.7,11.6,30.28,WNW,294,1.0,2.0,80,0.00,,,0.00,Wunderground v.1.15,2013-02-22 01:39:00,
2013-02-21 20:40:00,16.7,11.6,30.29,WNW,286,1.0,2.0,80,0.00,,,0.00,Wunderground v.1.15,2013-02-22 01:40:00,
2013-02-21 20:41:00,16.7,11.6,30.29,WNW,294,2.0,3.0,80,0.00,,,0.00,Wunderground v.1.15,2013-02-22 01:41:00,
2013-02-21 20:42:00,16.7,11.6,30.29,WNW,288,1.0,3.0,80,0.00,,,0.00,Wunderground v.1.15,2013-02-22 01:42:00,
2013-02-21 20:44:00,16.7,11.6,30.30,WNW,288,0.0,3.0,80,0.00,,,0.00,Wunderground v.1.15,2013-02-22 01:44:00,
2013-02-21 20:47:00,16.7,11.6,30.30,WNW,283,2.0,4.0,80,0.00,,,0.00,Wunderground v.1.15,2013-02-22 01:47:00,
2013-02-21 20:49:00,16.7,11.6,30.30,West,263,4.0,8.0,80,0.00,,,0.00,Wunderground v.1.15,2013-02-22 01:49:00,
2013-02-21 20:52:00,16.5,11.1,30.29,West,266,2.0,8.0,79,0.00,,,0.00,Wunderground v.1.15,2013-02-22 01:52:00,
2013-02-21 20:53:00,16.5,11.1,30.29,NW,316,3.0,8.0,79,0.00,,,0.00,Wunderground v.1.15,2013-02-22 01:53:00,
2013-02-21 20:55:00,16.5,11.4,30.30,NW,317,0.0,8.0,80,0.00,,,0.00,Wunderground v.1.15,2013-02-22 01:55:00,
2013-02-21 20:56:00,16.5,11.4,30.30,WNW,292,3.0,8.0,80,0.00,,,0.00,Wunderground v.1.15,2013-02-22 01:56:00,
2013-02-21 20:58:00,16.4,11.3,30.30,West,270,4.0,4.0,80,0.00,,,0.00,Wunderground v.1.15,2013-02-22 01:58:00,
2013-02-21 21:02:00,16.4,11.3,30.31,WNW,288,1.0,4.0,80,0.00,,,0.00,Wunderground v.1.15,2013-02-22 02:02:00,
2013-02-21 21:03:00,16.4,11.3,30.31,WNW,285,1.0,4.0,80,0.00,,,0.00,Wunderground v.1.15,2013-02-22 02:03:00,
2013-02-21 21:04:00,16.4,11.3,30.31,SSW,201,5.0,5.0,80,0.00,,,0.00,Wunderground v.1.15,2013-02-22 02:04:00,
2013-02-21 21:08:00,16.4,11.3,30.31,SW,227,3.0,6.0,80,0.00,,,0.00,Wunderground v.1.15,2013-02-22 02:08:00,
2013-02-21 21:10:00,16.4,11.3,30.31,West,273,3.0,6.0,80,0.00,,,0.00,Wunderground v.1.15,2013-02-22 02:10:00,
2013-02-21 21:14:00,16.3,11.2,30.31,WNW,292,1.0,6.0,80,0.00,,,0.00,Wunderground v.1.15,2013-02-22 02:14:00,
2013-02-21 21:15:00,16.3,11.2,30.31,WNW,292,2.0,6.0,80,0.00,,,0.00,Wunderground v.1.15,2013-02-22 02:15:00,
2013-02-21 21:17:00,16.3,11.2,30.32,WNW,292,1.0,6.0,80,0.00,,,0.00,Wunderground v.1.15,2013-02-22 02:17:00,
2013-02-21 21:20:00,16.4,11.3,30.32,West,267,0.0,3.0,80,0.00,,,0.00,Wunderground v.1.15,2013-02-22 02:20:00,
2013-02-21 21:21:00,16.3,11.2,30.32,WNW,285,0.0,3.0,80,0.00,,,0.00,Wunderground v.1.15,2013-02-22 02:21:00,
2013-02-21 21:22:00,16.3,11.2,30.32,West,261,2.0,3.0,80,0.00,,,0.00,Wunderground v.1.15,2013-02-22 02:22:00,
2013-02-21 21:25:00,16.3,11.2,30.32,West,265,0.0,3.0,80,0.00,,,0.00,Wunderground v.1.15,2013-02-22 02:25:00,
2013-02-21 21:26:00,16.3,11.2,30.32,West,265,0.0,3.0,80,0.00,,,0.00,Wunderground v.1.15,2013-02-22 02:26:00,
2013-02-21 21:28:00,16.4,11.6,30.32,West,265,0.0,1.0,81,0.00,,,0.00,Wunderground v.1.15,2013-02-22 02:28:00,
2013-02-21 21:31:00,16.4,11.6,30.32,West,278,1.0,2.0,81,0.00,,,0.00,Wunderground v.1.15,2013-02-22 02:31:00,
2013-02-21 21:33:00,16.4,11.6,30.32,WNW,298,1.0,5.0,81,0.00,,,0.00,Wunderground v.1.15,2013-02-22 02:33:00,
2013-02-21 21:35:00,16.3,11.5,30.33,WNW,292,0.0,5.0,81,0.00,,,0.00,Wunderground v.1.15,2013-02-22 02:35:00,
2013-02-21 21:37:00,16.3,11.2,30.33,West,274,4.0,7.0,80,0.00,,,0.00,Wunderground v.1.15,2013-02-22 02:37:00,
2013-02-21 21:38:00,16.2,11.1,30.33,NW,305,4.0,6.0,80,0.00,,,0.00,Wunderground v.1.15,2013-02-22 02:38:00,
2013-02-21 21:41:00,16.2,11.4,30.33,West,271,1.0,6.0,81,0.00,,,0.00,Wunderground v.1.15,2013-02-22 02:41:00,
2013-02-21 21:42:00,16.2,11.4,30.33,West,274,2.0,6.0,81,0.00,,,0.00,Wunderground v.1.15,2013-02-22 02:42:00,
2013-02-21 21:44:00,16.1,11.3,30.33,WNW,287,0.0,6.0,81,0.00,,,0.00,Wunderground v.1.15,2013-02-22 02:44:00,
2013-02-21 21:46:00,16.1,11.3,30.33,WNW,287,0.0,6.0,81,0.00,,,0.00,Wunderground v.1.15,2013-02-22 02:46:00,
2013-02-21 21:47:00,16.1,11.3,30.33,WNW,287,0.0,6.0,81,0.00,,,0.00,Wunderground v.1.15,2013-02-22 02:47:00,
2013-02-21 21:49:00,16.1,11.3,30.33,WNW,287,0.0,1.0,81,0.00,,,0.00,Wunderground v.1.15,2013-02-22 02:49:00,
2013-02-21 21:52:00,16.1,11.3,30.34,NW,317,2.0,3.0,81,0.00,,,0.00,Wunderground v.1.15,2013-02-22 02:52:00,
2013-02-21 21:54:00,16.1,11.3,30.34,WSW,237,0.0,3.0,81,0.00,,,0.00,Wunderground v.1.15,2013-02-22 02:54:00,
2013-02-21 21:55:00,16.1,11.3,30.34,WSW,250,0.0,3.0,81,0.00,,,0.00,Wunderground v.1.15,2013-02-22 02:55:00,
2013-02-21 21:57:00,16.1,11.3,30.34,NW,306,0.0,1.0,81,0.00,,,0.00,Wunderground v.1.15,2013-02-22 02:57:00,
2013-02-21 21:58:00,16.1,11.3,30.34,NW,306,1.0,1.0,81,0.00,,,0.00,Wunderground v.1.15,2013-02-22 02:58:00,
2013-02-21 22:00:00,16.1,11.6,30.34,NW,306,0.0,1.0,82,0.00,,,0.00,Wunderground v.1.15,2013-02-22 03:00:00,
2013-02-21 22:03:00,16.1,11.6,30.34,WNW,288,2.0,2.0,82,0.00,,,0.00,Wunderground v.1.15,2013-02-22 03:03:00,
2013-02-21 22:04:00,16.1,11.6,30.34,WNW,287,0.0,2.0,82,0.00,,,0.00,Wunderground v.1.15,2013-02-22 03:04:00,
2013-02-21 22:06:00,16.1,11.6,30.34,West,279,3.0,3.0,82,0.00,,,0.00,Wunderground v.1.15,2013-02-22 03:06:00,
2013-02-21 22:08:00,16.0,11.5,30.35,West,274,2.0,3.0,82,0.00,,,0.00,Wunderground v.1.15,2013-02-22 03:08:00,
2013-02-21 22:10:00,16.0,11.5,30.35,West,269,2.0,3.0,82,0.00,,,0.00,Wunderground v.1.15,2013-02-22 03:10:00,
2013-02-21 22:11:00,16.0,11.5,30.35,WNW,298,5.0,5.0,82,0.00,,,0.00,Wunderground v.1.15,2013-02-22 03:11:00,
2013-02-21 22:13:00,16.0,11.5,30.35,WNW,294,1.0,5.0,82,0.00,,,0.00,Wunderground v.1.15,2013-02-22 03:13:00,
2013-02-21 22:14:00,15.9,11.4,30.35,West,281,4.0,5.0,82,0.00,,,0.00,Wunderground v.1.15,2013-02-22 03:14:00,
2013-02-21 22:15:00,15.9,11.4,30.35,WNW,293,3.0,5.0,82,0.00,,,0.00,Wunderground v.1.15,2013-02-22 03:15:00,
2013-02-21 22:17:00,15.9,11.4,30.36,NNE,16,1.0,5.0,82,0.00,,,0.00,Wunderground v.1.15,2013-02-22 03:17:00,
2013-02-21 22:18:00,15.9,11.4,30.36,NNW,333,4.0,4.0,82,0.00,,,0.00,Wunderground v.1.15,2013-02-22 03:18:00,
2013-02-21 22:20:00,15.8,11.3,30.36,WNW,296,2.0,4.0,82,0.00,,,0.00,Wunderground v.1.15,2013-02-22 03:20:00,
2013-02-21 22:22:00,15.8,11.3,30.36,West,278,3.0,6.0,82,0.00,,,0.00,Wunderground v.1.15,2013-02-22 03:22:00,
2013-02-21 22:24:00,15.7,11.2,30.36,NW,321,1.0,6.0,82,0.00,,,0.00,Wunderground v.1.15,2013-02-22 03:24:00,
2013-02-21 22:25:00,15.7,11.2,30.37,West,265,2.0,6.0,82,0.00,,,0.00,Wunderground v.1.15,2013-02-22 03:25:00,
2013-02-21 22:26:00,15.7,11.2,30.37,WNW,290,7.0,7.0,82,0.00,,,0.00,Wunderground v.1.15,2013-02-22 03:26:00,
2013-02-21 22:27:00,15.7,11.2,30.37,WSW,252,4.0,4.0,82,0.00,,,0.00,Wunderground v.1.15,2013-02-22 03:27:00,
2013-02-21 22:29:00,15.6,11.4,30.37,West,279,2.0,4.0,83,0.00,,,0.00,Wunderground v.1.15,2013-02-22 03:29:00,
2013-02-21 22:32:00,15.6,11.4,30.37,WNW,284,0.0,4.0,83,0.00,,,0.00,Wunderground v.1.15,2013-02-22 03:32:00,
2013-02-21 22:34:00,15.7,11.5,30.37,WNW,285,0.0,8.0,83,0.00,,,0.00,Wunderground v.1.15,2013-02-22 03:34:00,
2013-02-21 22:35:00,15.7,11.5,30.37,SW,227,1.0,8.0,83,0.00,,,0.00,Wunderground v.1.15,2013-02-22 03:35:00,
2013-02-21 22:38:00,15.7,11.5,30.37,West,261,2.0,3.0,83,0.00,,,0.00,Wunderground v.1.15,2013-02-22 03:38:00,
2013-02-21 22:39:00,15.7,11.5,30.37,WNW,283,3.0,3.0,83,0.00,,,0.00,Wunderground v.1.15,2013-02-22 03:39:00,
2013-02-21 22:41:00,15.7,11.5,30.37,WNW,296,4.0,4.0,83,0.00,,,0.00,Wunderground v.1.15,2013-02-22 03:41:00,
2013-02-21 22:43:00,15.7,11.5,30.38,West,281,3.0,5.0,83,0.00,,,0.00,Wunderground v.1.15,2013-02-22 03:43:00,
2013-02-21 22:44:00,15.7,11.7,30.38,West,262,0.0,5.0,84,0.00,,,0.00,Wunderground v.1.15,2013-02-22 03:44:00,
2013-02-21 22:46:00,15.7,11.7,30.38,SW,227,3.0,5.0,84,0.00,,,0.00,Wunderground v.1.15,2013-02-22 03:46:00,
2013-02-21 22:47:00,15.8,11.8,30.38,WSW,249,3.0,5.0,84,0.00,,,0.00,Wunderground v.1.15,2013-02-22 03:47:00,
2013-02-21 22:50:00,15.7,11.7,30.39,WNW,300,2.0,6.0,84,0.00,,,0.00,Wunderground v.1.15,2013-02-22 03:50:00,
2013-02-21 22:52:00,15.8,11.8,30.38,NNW,345,0.0,6.0,84,0.00,,,0.00,Wunderground v.1.15,2013-02-22 03:52:00,
2013-02-21 22:55:00,15.8,11.8,30.38,WNW,294,2.0,6.0,84,0.00,,,0.00,Wunderground v.1.15,2013-02-22 03:55:00,
2013-02-21 22:56:00,15.8,11.8,30.38,NW,317,0.0,6.0,84,0.00,,,0.00,Wunderground v.1.15,2013-02-22 03:56:00,
2013-02-21 22:57:00,15.8,11.8,30.38,NW,317,0.0,2.0,84,0.00,,,0.00,Wunderground v.1.15,2013-02-22 03:57:00,
2013-02-21 22:59:00,15.8,11.8,30.38,West,275,1.0,2.0,84,0.00,,,0.00,Wunderground v.1.15,2013-02-22 03:59:00,
2013-02-21 23:01:00,15.8,11.8,30.38,North,360,0.0,2.0,84,0.00,,,0.00,Wunderground v.1.15,2013-02-22 04:01:00,
2013-02-21 23:02:00,15.9,11.9,30.38,NW,309,1.0,2.0,84,0.00,,,0.00,Wunderground v.1.15,2013-02-22 04:02:00,
2013-02-21 23:05:00,15.9,11.9,30.38,NW,309,0.0,2.0,84,0.00,,,0.00,Wunderground v.1.15,2013-02-22 04:05:00,
2013-02-21 23:06:00,15.9,11.9,30.38,NW,309,0.0,2.0,84,0.00,,,0.00,Wunderground v.1.15,2013-02-22 04:06:00,
2013-02-21 23:07:00,15.9,11.9,30.38,NW,309,0.0,0.0,84,0.00,,,0.00,Wunderground v.1.15,2013-02-22 04:07:00,
2013-02-21 23:09:00,15.9,11.9,30.38,NW,308,0.0,2.0,84,0.00,,,0.00,Wunderground v.1.15,2013-02-22 04:09:00,
2013-02-21 23:10:00,15.9,11.9,30.37,North,360,0.0,2.0,84,0.00,,,0.00,Wunderground v.1.15,2013-02-22 04:10:00,
2013-02-21 23:12:00,15.9,11.9,30.38,North,355,0.0,2.0,84,0.00,,,0.00,Wunderground v.1.15,2013-02-22 04:12:00,
2013-02-21 23:13:00,15.9,11.9,30.38,NNW,327,0.0,2.0,84,0.00,,,0.00,Wunderground v.1.15,2013-02-22 04:13:00,
2013-02-21 23:14:00,15.9,11.9,30.38,NW,309,2.0,2.0,84,0.00,,,0.00,Wunderground v.1.15,2013-02-22 04:14:00,
2013-02-21 23:16:00,15.9,11.9,30.38,NW,309,2.0,2.0,84,0.00,,,0.00,Wunderground v.1.15,2013-02-22 04:16:00,
2013-02-21 23:18:00,16.0,12.0,30.39,NW,309,2.0,2.0,84,0.00,,,0.00,Wunderground v.1.15,2013-02-22 04:18:00,
2013-02-21 23:20:00,16.0,12.0,30.39,WNW,300,0.0,3.0,84,0.00,,,0.00,Wunderground v.1.15,2013-02-22 04:20:00,
2013-02-21 23:23:00,16.1,12.1,30.38,WNW,300,0.0,3.0,84,0.00,,,0.00,Wunderground v.1.15,2013-02-22 04:23:00,
2013-02-21 23:25:00,16.1,12.1,30.39,WNW,292,0.0,3.0,84,0.00,,,0.00,Wunderground v.1.15,2013-02-22 04:25:00,
2013-02-21 23:26:00,16.1,12.1,30.39,WNW,292,0.0,3.0,84,0.00,,,0.00,Wunderground v.1.15,2013-02-22 04:26:00,
2013-02-21 23:28:00,16.1,12.1,30.39,NNW,336,0.0,1.0,84,0.00,,,0.00,Wunderground v.1.15,2013-02-22 04:28:00,
2013-02-21 23:30:00,16.1,12.1,30.39,NNW,336,0.0,1.0,84,0.00,,,0.00,Wunderground v.1.15,2013-02-22 04:30:00,
2013-02-21 23:31:00,16.1,12.1,30.39,NNW,336,1.0,1.0,84,0.00,,,0.00,Wunderground v.1.15,2013-02-22 04:31:00,
2013-02-21 23:33:00,16.2,12.2,30.39,NNW,344,1.0,1.0,84,0.00,,,0.00,Wunderground v.1.15,2013-02-22 04:33:00,
2013-02-21 23:36:00,16.2,12.2,30.39,WNW,302,0.0,1.0,84,0.00,,,0.00,Wunderground v.1.15,2013-02-22 04:36:00,
2013-02-21 23:39:00,16.2,12.2,30.39,WNW,302,1.0,1.0,84,0.00,,,0.00,Wunderground v.1.15,2013-02-22 04:39:00,
2013-02-21 23:41:00,16.2,12.2,30.39,WNW,302,1.0,1.0,84,0.00,,,0.00,Wunderground v.1.15,2013-02-22 04:41:00,
2013-02-21 23:42:00,16.3,12.6,30.39,WNW,302,0.0,1.0,85,0.00,,,0.00,Wunderground v.1.15,2013-02-22 04:42:00,
2013-02-21 23:45:00,16.3,12.3,30.39,WNW,302,0.0,1.0,84,0.00,,,0.00,Wunderground v.1.15,2013-02-22 04:45:00,
2013-02-21 23:47:00,16.3,12.6,30.39,WNW,302,0.0,1.0,85,0.00,,,0.00,Wunderground v.1.15,2013-02-22 04:47:00,
2013-02-21 23:48:00,16.3,12.6,30.39,WNW,302,0.0,0.0,85,0.00,,,0.00,Wunderground v.1.15,2013-02-22 04:48:00,
2013-02-21 23:52:00,16.4,12.7,30.39,WNW,284,0.0,1.0,85,0.00,,,0.00,Wunderground v.1.15,2013-02-22 04:52:00,
2013-02-21 23:53:00,16.4,12.7,30.39,WNW,284,1.0,1.0,85,0.00,,,0.00,Wunderground v.1.15,2013-02-22 04:53:00,
2013-02-21 23:54:00,16.4,12.7,30.39,NNW,333,0.0,1.0,85,0.00,,,0.00,Wunderground v.1.15,2013-02-22 04:54:00,
2013-02-21 23:58:00,16.4,12.7,30.40,NW,309,0.0,0.0,85,0.00,,,0.00,Wunderground v.1.15,2013-02-22 04:58:00,